GEFSSE_prec_meanprecacc_024.txt.gz
Total_Precipitation_Accumulation
0.00 0.01 0.04 0.05 0.03 0.05 0.05 0.03 0.05 0.05 0.04 0.02 0.02 0.02 0.03 0.03 0.09 0.14 0.15 0.08 0.05 0.05 0.05 0.13 0.17 0.09 0.09 0.11 0.12 0.14 0.20 0.22 0.19 0.14 0.17 0.18 0.14 0.12 0.15 0.12 0.13 0.19 0.07
0.00 0.01 0.04 0.08 0.07 0.07 0.07 0.05 0.07 0.07 0.03 0.02 0.03 0.03 0.03 0.06 0.11 0.11 0.08 0.03 0.02 0.03 0.05 0.13 0.18 0.13 0.12 0.15 0.19 0.24 0.30 0.27 0.20 0.13 0.15 0.16 0.15 0.15 0.17 0.15 0.22 0.21 0.10
0.00 0.01 0.03 0.08 0.09 0.08 0.07 0.06 0.13 0.13 0.06 0.05 0.07 0.06 0.04 0.04 0.05 0.05 0.04 0.02 0.01 0.01 0.03 0.11 0.16 0.14 0.15 0.20 0.24 0.23 0.28 0.29 0.22 0.13 0.11 0.32 0.35 0.19 0.17 0.25 0.24 0.14 0.13
0.00 0.00 0.02 0.06 0.11 0.10 0.08 0.11 0.23 0.22 0.14 0.09 0.08 0.07 0.04 0.03 0.08 0.15 0.14 0.04 0.02 0.01 0.02 0.08 0.14 0.12 0.13 0.22 0.25 0.21 0.19 0.17 0.19 0.14 0.20 0.40 0.46 0.29 0.31 0.33 0.27 0.17 0.15
0.00 0.02 0.11 0.14 0.11 0.10 0.12 0.22 0.35 0.31 0.25 0.16 0.08 0.05 0.04 0.04 0.07 0.14 0.10 0.05 0.01 0.01 0.02 0.06 0.10 0.10 0.10 0.13 0.16 0.14 0.16 0.25 0.30 0.25 0.26 0.30 0.41 0.36 0.36 0.36 0.34 0.22 0.19
0.00 0.02 0.09 0.14 0.12 0.12 0.20 0.31 0.34 0.37 0.40 0.25 0.11 0.05 0.07 0.08 0.09 0.12 0.11 0.05 0.01 0.01 0.01 0.02 0.05 0.08 0.09 0.10 0.11 0.13 0.21 0.29 0.31 0.23 0.24 0.22 0.28 0.30 0.28 0.31 0.33 0.29 0.21
0.00 0.02 0.04 0.14 0.14 0.16 0.25 0.32 0.30 0.35 0.41 0.28 0.11 0.10 0.11 0.07 0.07 0.10 0.12 0.05 0.02 0.00 0.00 0.01 0.03 0.05 0.07 0.09 0.09 0.12 0.15 0.11 0.11 0.14 0.24 0.27 0.22 0.19 0.22 0.27 0.32 0.30 0.24
0.00 0.01 0.03 0.09 0.11 0.14 0.24 0.32 0.27 0.28 0.31 0.22 0.12 0.12 0.09 0.08 0.08 0.10 0.07 0.03 0.00 0.00 0.00 0.01 0.03 0.04 0.05 0.06 0.10 0.13 0.10 0.03 0.01 0.03 0.10 0.24 0.32 0.26 0.18 0.24 0.29 0.23 0.20
0.02 0.01 0.01 0.02 0.03 0.07 0.16 0.26 0.29 0.29 0.26 0.14 0.11 0.08 0.09 0.09 0.07 0.05 0.03 0.01 0.00 0.00 0.00 0.01 0.02 0.02 0.02 0.03 0.06 0.08 0.05 0.01 0.00 0.01 0.03 0.17 0.22 0.18 0.15 0.19 0.26 0.29 0.28
0.03 0.01 0.01 0.01 0.01 0.03 0.06 0.15 0.27 0.30 0.25 0.15 0.11 0.11 0.10 0.07 0.04 0.03 0.01 0.00 0.00 0.00 0.00 0.00 0.01 0.01 0.01 0.01 0.02 0.04 0.03 0.00 0.00 0.02 0.04 0.11 0.13 0.13 0.15 0.14 0.14 0.14 0.16
0.04 0.01 0.01 0.01 0.00 0.03 0.07 0.11 0.23 0.31 0.26 0.15 0.11 0.10 0.09 0.06 0.06 0.07 0.01 0.00 0.00 0.00 0.00 0.01 0.01 0.01 0.00 0.00 0.03 0.05 0.02 0.00 0.00 0.01 0.03 0.04 0.05 0.07 0.10 0.09 0.07 0.06 0.06
0.04 0.05 0.03 0.00 0.00 0.02 0.10 0.26 0.41 0.30 0.21 0.12 0.07 0.05 0.11 0.07 0.10 0.08 0.01 0.00 0.01 0.00 0.00 0.01 0.01 0.00 0.00 0.00 0.02 0.02 0.01 0.00 0.01 0.02 0.02 0.02 0.03 0.03 0.03 0.03 0.02 0.02 0.02
0.01 0.03 0.05 0.02 0.00 0.01 0.08 0.24 0.40 0.43 0.34 0.26 0.06 0.03 0.07 0.03 0.02 0.03 0.01 0.02 0.03 0.00 0.00 0.00 0.00 0.00 0.00 0.00 0.00 0.00 0.01 0.01 0.03 0.05 0.02 0.02 0.03 0.05 0.05 0.03 0.02 0.01 0.01
0.00 0.00 0.02 0.03 0.00 0.00 0.01 0.03 0.10 0.16 0.16 0.16 0.07 0.02 0.02 0.01 0.00 0.00 0.00 0.01 0.01 0.00 0.00 0.00 0.00 0.00 0.00 0.00 0.00 0.00 0.01 0.02 0.12 0.15 0.10 0.07 0.08 0.11 0.11 0.07 0.03 0.02 0.02
0.00 0.00 0.00 0.01 0.01 0.00 0.00 0.01 0.02 0.04 0.06 0.05 0.06 0.06 0.02 0.01 0.00 0.00 0.00 0.00 0.00 0.00 0.00 0.00 0.00 0.00 0.00 0.00 0.00 0.00 0.02 0.06 0.14 0.14 0.16 0.21 0.23 0.27 0.24 0.20 0.13 0.07 0.05
0.00 0.00 0.00 0.00 0.01 0.00 0.00 0.00 0.00 0.02 0.03 0.02 0.01 0.03 0.02 0.00 0.00 0.00 0.00 0.00 0.00 0.00 0.00 0.00 0.00 0.00 0.00 0.00 0.00 0.00 0.00 0.03 0.09 0.11 0.15 0.24 0.34 0.31 0.34 0.35 0.28 0.18 0.14
0.00 0.00 0.00 0.00 0.01 0.00 0.01 0.01 0.00 0.01 0.02 0.02 0.01 0.01 0.01 0.00 0.00 0.00 0.00 0.00 0.00 0.00 0.00 0.00 0.00 0.00 0.00 0.00 0.00 0.00 0.00 0.00 0.00 0.01 0.03 0.07 0.18 0.32 0.39 0.41 0.34 0.29 0.23
0.00 0.00 0.00 0.00 0.00 0.00 0.01 0.01 0.02 0.02 0.03 0.03 0.03 0.01 0.01 0.02 0.02 0.02 0.03 0.03 0.01 0.00 0.00 0.00 0.00 0.00 0.00 0.00 0.00 0.00 0.00 0.00 0.00 0.00 0.01 0.02 0.06 0.13 0.27 0.29 0.27 0.29 0.25
0.00 0.00 0.00 0.00 0.01 0.01 0.02 0.04 0.06 0.10 0.13 0.11 0.09 0.06 0.08 0.10 0.11 0.13 0.14 0.14 0.07 0.02 0.01 0.01 0.01 0.00 0.00 0.01 0.00 0.00 0.00 0.00 0.00 0.00 0.00 0.00 0.01 0.04 0.08 0.08 0.09 0.10 0.14
0.02 0.01 0.00 0.01 0.02 0.04 0.08 0.10 0.22 0.30 0.29 0.32 0.29 0.18 0.22 0.30 0.35 0.38 0.36 0.36 0.26 0.15 0.12 0.08 0.08 0.05 0.03 0.02 0.01 0.01 0.00 0.00 0.00 0.00 0.00 0.00 0.00 0.00 0.01 0.01 0.03 0.02 0.04
0.04 0.01 0.00 0.01 0.03 0.08 0.12 0.17 0.33 0.54 0.49 0.51 0.48 0.33 0.36 0.51 0.67 0.73 0.68 0.64 0.52 0.43 0.36 0.33 0.38 0.35 0.21 0.05 0.03 0.02 0.00 0.00 0.00 0.00 0.00 0.00 0.00 0.00 0.00 0.00 0.01 0.02 0.02
0.06 0.03 0.02 0.03 0.06 0.10 0.14 0.22 0.32 0.37 0.27 0.31 0.37 0.40 0.37 0.40 0.56 0.69 0.80 0.74 0.62 0.59 0.63 0.66 0.75 0.75 0.49 0.21 0.12 0.09 0.04 0.02 0.00 0.00 0.00 0.00 0.00 0.00 0.00 0.00 0.00 0.00 0.01
0.06 0.05 0.04 0.06 0.11 0.18 0.25 0.34 0.35 0.33 0.34 0.42 0.43 0.48 0.48 0.42 0.42 0.46 0.61 0.64 0.58 0.56 0.66 0.74 0.92 1.10 0.86 0.55 0.34 0.26 0.22 0.20 0.06 0.00 0.00 0.00 0.00 0.00 0.00 0.00 0.00 0.00 0.00
0.05 0.05 0.07 0.13 0.24 0.38 0.49 0.54 0.55 0.55 0.53 0.49 0.48 0.48 0.37 0.33 0.32 0.31 0.38 0.45 0.51 0.50 0.61 0.68 0.80 1.08 1.16 0.92 0.67 0.42 0.26 0.18 0.11 0.07 0.01 0.00 0.00 0.00 0.00 0.00 0.00 0.00 0.00
0.09 0.12 0.19 0.36 0.56 0.74 0.83 0.83 0.80 0.68 0.58 0.48 0.39 0.34 0.32 0.28 0.22 0.19 0.27 0.28 0.30 0.36 0.48 0.69 0.83 1.01 1.14 1.02 0.86 0.72 0.60 0.41 0.20 0.13 0.12 0.03 0.00 0.00 0.00 0.00 0.00 0.00 0.00
0.38 0.51 0.70 0.92 1.04 1.07 1.07 0.98 0.86 0.72 0.60 0.48 0.34 0.26 0.23 0.24 0.24 0.25 0.27 0.21 0.16 0.21 0.31 0.46 0.66 0.87 1.07 1.09 0.90 0.75 0.71 0.64 0.54 0.37 0.20 0.10 0.04 0.01 0.00 0.00 0.00 0.00 0.00

GEFSSE_prec_meanprecacc_030.txt.gz
Total_Precipitation_Accumulation
0.00 0.01 0.04 0.05 0.04 0.05 0.06 0.05 0.07 0.07 0.05 0.03 0.03 0.03 0.04 0.04 0.09 0.14 0.15 0.09 0.06 0.06 0.06 0.15 0.19 0.13 0.15 0.19 0.22 0.25 0.32 0.34 0.26 0.18 0.19 0.19 0.15 0.13 0.15 0.14 0.21 0.32 0.12
0.00 0.01 0.04 0.08 0.07 0.08 0.07 0.05 0.08 0.08 0.04 0.03 0.04 0.04 0.04 0.06 0.12 0.12 0.08 0.04 0.03 0.04 0.06 0.14 0.19 0.15 0.16 0.21 0.29 0.36 0.42 0.37 0.27 0.18 0.20 0.21 0.18 0.15 0.17 0.17 0.29 0.32 0.13
0.00 0.01 0.03 0.08 0.09 0.08 0.07 0.06 0.13 0.13 0.06 0.05 0.07 0.07 0.04 0.04 0.06 0.05 0.05 0.03 0.02 0.02 0.03 0.12 0.18 0.16 0.18 0.25 0.32 0.36 0.40 0.38 0.28 0.19 0.27 0.63 0.50 0.21 0.18 0.26 0.26 0.16 0.14
0.00 0.00 0.03 0.06 0.11 0.11 0.08 0.11 0.24 0.23 0.14 0.10 0.08 0.07 0.04 0.03 0.08 0.15 0.14 0.04 0.02 0.02 0.03 0.09 0.15 0.13 0.15 0.24 0.29 0.28 0.28 0.24 0.24 0.27 0.50 0.78 0.73 0.36 0.33 0.35 0.29 0.19 0.16
0.00 0.02 0.11 0.14 0.12 0.10 0.12 0.22 0.36 0.31 0.25 0.16 0.08 0.05 0.04 0.04 0.07 0.14 0.10 0.05 0.01 0.01 0.03 0.07 0.11 0.11 0.11 0.14 0.17 0.17 0.20 0.29 0.36 0.44 0.61 0.65 0.66 0.46 0.40 0.38 0.37 0.23 0.20
0.00 0.02 0.09 0.14 0.12 0.13 0.21 0.32 0.35 0.37 0.41 0.26 0.11 0.05 0.07 0.08 0.09 0.12 0.11 0.05 0.02 0.01 0.01 0.03 0.06 0.10 0.10 0.11 0.12 0.15 0.22 0.32 0.41 0.47 0.57 0.56 0.52 0.39 0.32 0.33 0.35 0.31 0.23
0.00 0.02 0.04 0.14 0.14 0.16 0.25 0.33 0.31 0.36 0.41 0.29 0.11 0.10 0.12 0.07 0.07 0.10 0.13 0.05 0.02 0.01 0.01 0.01 0.04 0.06 0.08 0.11 0.11 0.14 0.16 0.14 0.23 0.35 0.52 0.59 0.43 0.24 0.25 0.30 0.34 0.32 0.27
0.00 0.01 0.03 0.09 0.11 0.15 0.25 0.34 0.28 0.30 0.32 0.22 0.13 0.13 0.09 0.08 0.08 0.11 0.08 0.04 0.01 0.00 0.00 0.01 0.04 0.05 0.06 0.09 0.12 0.15 0.11 0.06 0.06 0.11 0.24 0.44 0.42 0.29 0.19 0.26 0.32 0.25 0.23
0.02 0.01 0.02 0.02 0.03 0.07 0.17 0.28 0.32 0.31 0.28 0.15 0.12 0.10 0.10 0.09 0.07 0.05 0.04 0.02 0.00 0.00 0.00 0.01 0.02 0.02 0.02 0.04 0.06 0.08 0.05 0.02 0.02 0.04 0.09 0.26 0.25 0.19 0.16 0.21 0.28 0.32 0.32
0.03 0.01 0.01 0.01 0.02 0.05 0.07 0.16 0.29 0.35 0.29 0.18 0.13 0.12 0.10 0.07 0.04 0.03 0.01 0.00 0.00 0.00 0.00 0.00 0.01 0.01 0.01 0.01 0.03 0.05 0.03 0.01 0.01 0.03 0.07 0.13 0.14 0.14 0.17 0.15 0.15 0.15 0.18
0.04 0.01 0.01 0.01 0.01 0.07 0.14 0.13 0.26 0.35 0.30 0.17 0.12 0.10 0.10 0.09 0.09 0.08 0.01 0.00 0.00 0.00 0.00 0.01 0.01 0.01 0.00 0.00 0.03 0.05 0.02 0.01 0.01 0.02 0.03 0.04 0.05 0.07 0.10 0.10 0.08 0.07 0.07
0.04 0.05 0.03 0.01 0.01 0.04 0.13 0.35 0.48 0.37 0.25 0.17 0.15 0.08 0.16 0.20 0.17 0.10 0.01 0.00 0.01 0.00 0.00 0.01 0.01 0.00 0.00 0.00 0.02 0.02 0.01 0.00 0.01 0.03 0.02 0.02 0.03 0.03 0.03 0.03 0.03 0.02 0.02
0.01 0.03 0.05 0.02 0.00 0.01 0.13 0.36 0.52 0.57 0.48 0.43 0.24 0.11 0.16 0.10 0.04 0.03 0.01 0.02 0.03 0.00 0.00 0.00 0.00 0.00 0.00 0.00 0.00 0.01 0.01 0.01 0.03 0.06 0.03 0.02 0.03 0.05 0.05 0.03 0.02 0.01 0.01
0.00 0.00 0.02 0.03 0.01 0.00 0.03 0.09 0.19 0.24 0.25 0.27 0.16 0.05 0.04 0.03 0.01 0.01 0.00 0.01 0.01 0.00 0.00 0.00 0.00 0.00 0.00 0.00 0.00 0.00 0.01 0.02 0.12 0.15 0.10 0.07 0.08 0.11 0.11 0.07 0.03 0.02 0.02
0.00 0.00 0.00 0.01 0.01 0.01 0.01 0.03 0.04 0.09 0.11 0.09 0.10 0.08 0.02 0.01 0.01 0.00 0.00 0.00 0.00 0.00 0.00 0.00 0.00 0.00 0.00 0.00 0.00 0.00 0.02 0.06 0.14 0.14 0.17 0.21 0.23 0.27 0.24 0.20 0.13 0.07 0.05
0.00 0.00 0.00 0.00 0.01 0.00 0.00 0.00 0.01 0.05 0.05 0.04 0.02 0.04 0.02 0.00 0.00 0.00 0.00 0.00 0.00 0.00 0.00 0.00 0.00 0.00 0.00 0.00 0.00 0.00 0.00 0.03 0.09 0.11 0.15 0.25 0.35 0.31 0.34 0.36 0.29 0.19 0.14
0.00 0.00 0.00 0.00 0.01 0.00 0.01 0.01 0.00 0.02 0.03 0.03 0.02 0.01 0.01 0.01 0.00 0.00 0.00 0.00 0.00 0.00 0.00 0.00 0.00 0.00 0.00 0.00 0.00 0.00 0.00 0.00 0.00 0.01 0.03 0.08 0.19 0.32 0.40 0.41 0.34 0.29 0.23
0.01 0.00 0.00 0.00 0.00 0.00 0.01 0.01 0.02 0.02 0.03 0.04 0.03 0.02 0.02 0.02 0.02 0.03 0.03 0.03 0.01 0.00 0.00 0.00 0.00 0.00 0.00 0.00 0.00 0.00 0.00 0.00 0.00 0.00 0.01 0.02 0.07 0.15 0.28 0.29 0.27 0.29 0.25
0.02 0.01 0.01 0.01 0.01 0.01 0.02 0.04 0.06 0.10 0.15 0.12 0.11 0.07 0.08 0.10 0.12 0.14 0.15 0.14 0.07 0.03 0.01 0.01 0.01 0.00 0.00 0.01 0.00 0.00 0.00 0.00 0.00 0.00 0.00 0.01 0.02 0.05 0.10 0.09 0.09 0.11 0.14
0.05 0.03 0.02 0.02 0.03 0.05 0.09 0.12 0.24 0.32 0.32 0.34 0.30 0.18 0.22 0.31 0.36 0.41 0.39 0.37 0.27 0.17 0.13 0.09 0.08 0.06 0.04 0.02 0.01 0.01 0.00 0.00 0.00 0.00 0.00 0.00 0.00 0.00 0.02 0.02 0.05 0.04 0.04
0.07 0.03 0.02 0.02 0.04 0.10 0.14 0.20 0.38 0.59 0.55 0.58 0.52 0.34 0.37 0.53 0.70 0.79 0.75 0.67 0.56 0.48 0.39 0.35 0.42 0.41 0.25 0.07 0.05 0.04 0.01 0.00 0.00 0.00 0.00 0.00 0.00 0.00 0.00 0.00 0.02 0.04 0.03
0.08 0.04 0.04 0.05 0.08 0.12 0.18 0.27 0.37 0.44 0.33 0.39 0.45 0.45 0.41 0.45 0.62 0.74 0.87 0.82 0.69 0.66 0.71 0.74 0.88 0.91 0.60 0.26 0.19 0.20 0.12 0.07 0.01 0.00 0.00 0.00 0.00 0.00 0.00 0.00 0.00 0.01 0.02
0.06 0.06 0.06 0.08 0.14 0.22 0.32 0.46 0.54 0.57 0.56 0.60 0.57 0.61 0.58 0.52 0.52 0.56 0.73 0.76 0.67 0.66 0.77 0.88 1.10 1.31 1.04 0.66 0.41 0.40 0.37 0.36 0.18 0.03 0.00 0.00 0.00 0.00 0.00 0.00 0.01 0.00 0.00
0.05 0.05 0.08 0.14 0.27 0.43 0.58 0.74 0.88 0.93 0.85 0.70 0.65 0.60 0.46 0.43 0.44 0.44 0.50 0.57 0.62 0.61 0.75 0.82 0.89 1.21 1.31 1.03 0.77 0.51 0.35 0.30 0.26 0.18 0.05 0.01 0.01 0.00 0.00 0.00 0.00 0.00 0.00
0.10 0.12 0.19 0.38 0.61 0.83 0.99 1.15 1.32 1.21 1.00 0.78 0.61 0.51 0.47 0.41 0.36 0.36 0.43 0.40 0.41 0.48 0.61 0.80 0.94 1.15 1.27 1.14 0.97 0.82 0.67 0.50 0.28 0.27 0.26 0.09 0.01 0.01 0.00 0.00 0.00 0.00 0.00
0.39 0.51 0.72 0.95 1.11 1.18 1.27 1.33 1.37 1.27 1.12 0.93 0.68 0.52 0.46 0.43 0.42 0.46 0.47 0.37 0.31 0.36 0.45 0.61 0.78 0.98 1.19 1.21 1.00 0.82 0.78 0.69 0.61 0.49 0.35 0.25 0.12 0.02 0.01 0.00 0.00 0.00 0.00

GEFSSE_prec_meanprecacc_036.txt.gz
Total_Precipitation_Accumulation
0.00 0.01 0.04 0.05 0.04 0.05 0.06 0.06 0.07 0.07 0.06 0.04 0.03 0.03 0.04 0.04 0.09 0.15 0.15 0.09 0.06 0.06 0.07 0.15 0.19 0.14 0.15 0.20 0.23 0.27 0.34 0.36 0.28 0.22 0.23 0.23 0.17 0.17 0.22 0.22 0.26 0.34 0.14
0.00 0.01 0.05 0.08 0.07 0.08 0.07 0.06 0.08 0.08 0.04 0.03 0.04 0.04 0.04 0.06 0.12 0.12 0.08 0.04 0.03 0.04 0.06 0.14 0.20 0.15 0.17 0.22 0.31 0.38 0.44 0.39 0.30 0.21 0.25 0.27 0.23 0.22 0.24 0.23 0.34 0.35 0.16
0.00 0.01 0.03 0.08 0.09 0.08 0.07 0.06 0.13 0.14 0.07 0.06 0.08 0.07 0.04 0.04 0.06 0.06 0.05 0.03 0.02 0.02 0.04 0.12 0.18 0.17 0.18 0.25 0.34 0.38 0.42 0.40 0.31 0.23 0.34 0.72 0.59 0.32 0.27 0.32 0.32 0.21 0.18
0.00 0.00 0.03 0.06 0.12 0.11 0.08 0.11 0.24 0.23 0.14 0.10 0.09 0.07 0.04 0.03 0.08 0.15 0.14 0.04 0.02 0.02 0.03 0.09 0.16 0.14 0.16 0.25 0.30 0.30 0.30 0.27 0.30 0.37 0.61 0.91 0.85 0.50 0.46 0.43 0.35 0.23 0.20
0.00 0.02 0.11 0.14 0.12 0.10 0.13 0.22 0.36 0.32 0.26 0.17 0.08 0.05 0.04 0.04 0.07 0.14 0.10 0.05 0.02 0.02 0.03 0.08 0.13 0.12 0.13 0.16 0.19 0.19 0.22 0.33 0.44 0.53 0.71 0.74 0.73 0.58 0.54 0.48 0.41 0.27 0.23
0.00 0.02 0.09 0.14 0.12 0.13 0.21 0.32 0.35 0.38 0.41 0.26 0.11 0.05 0.08 0.08 0.09 0.12 0.11 0.05 0.02 0.02 0.02 0.04 0.07 0.11 0.12 0.13 0.14 0.17 0.25 0.38 0.50 0.57 0.67 0.62 0.58 0.48 0.43 0.41 0.40 0.34 0.26
0.00 0.02 0.04 0.14 0.14 0.16 0.25 0.33 0.32 0.37 0.42 0.29 0.11 0.10 0.12 0.07 0.07 0.10 0.13 0.05 0.02 0.01 0.01 0.02 0.05 0.08 0.10 0.13 0.13 0.16 0.19 0.20 0.32 0.47 0.67 0.65 0.47 0.32 0.33 0.36 0.38 0.36 0.31
0.00 0.01 0.03 0.09 0.11 0.15 0.25 0.35 0.29 0.30 0.33 0.23 0.13 0.13 0.10 0.08 0.08 0.11 0.09 0.04 0.01 0.00 0.00 0.01 0.05 0.06 0.08 0.10 0.13 0.17 0.16 0.12 0.18 0.20 0.29 0.47 0.46 0.34 0.25 0.32 0.35 0.29 0.27
0.02 0.01 0.02 0.02 0.03 0.07 0.17 0.29 0.32 0.32 0.29 0.16 0.13 0.10 0.10 0.09 0.07 0.06 0.04 0.02 0.00 0.00 0.00 0.01 0.03 0.03 0.03 0.05 0.07 0.10 0.10 0.07 0.10 0.09 0.11 0.28 0.29 0.23 0.20 0.24 0.30 0.35 0.35
0.03 0.01 0.01 0.01 0.02 0.05 0.07 0.16 0.30 0.35 0.30 0.19 0.14 0.12 0.10 0.07 0.04 0.03 0.01 0.00 0.00 0.00 0.00 0.00 0.01 0.01 0.01 0.02 0.03 0.05 0.05 0.04 0.05 0.06 0.08 0.16 0.19 0.17 0.19 0.17 0.16 0.17 0.20
0.04 0.01 0.01 0.01 0.01 0.07 0.14 0.13 0.26 0.35 0.31 0.18 0.13 0.11 0.10 0.09 0.09 0.08 0.01 0.00 0.00 0.00 0.00 0.01 0.01 0.01 0.00 0.00 0.03 0.06 0.03 0.04 0.05 0.05 0.04 0.06 0.08 0.10 0.13 0.11 0.08 0.07 0.08
0.04 0.05 0.03 0.01 0.01 0.04 0.14 0.36 0.48 0.37 0.26 0.17 0.15 0.08 0.17 0.20 0.17 0.10 0.01 0.00 0.01 0.00 0.00 0.01 0.01 0.00 0.00 0.00 0.02 0.03 0.02 0.03 0.04 0.04 0.03 0.04 0.04 0.04 0.04 0.03 0.03 0.03 0.02
0.01 0.03 0.05 0.02 0.01 0.02 0.14 0.36 0.52 0.57 0.48 0.43 0.25 0.11 0.16 0.11 0.04 0.03 0.01 0.02 0.03 0.00 0.00 0.00 0.00 0.00 0.00 0.00 0.00 0.01 0.02 0.03 0.04 0.06 0.03 0.02 0.03 0.05 0.05 0.03 0.02 0.01 0.01
0.00 0.00 0.03 0.03 0.01 0.01 0.03 0.09 0.19 0.24 0.25 0.27 0.16 0.05 0.04 0.04 0.02 0.01 0.00 0.01 0.01 0.00 0.00 0.00 0.00 0.00 0.00 0.00 0.00 0.01 0.02 0.03 0.13 0.15 0.10 0.07 0.08 0.11 0.11 0.07 0.03 0.02 0.03
0.00 0.01 0.01 0.02 0.02 0.01 0.03 0.04 0.04 0.09 0.11 0.09 0.10 0.08 0.03 0.02 0.01 0.01 0.00 0.00 0.00 0.00 0.00 0.00 0.00 0.00 0.00 0.00 0.00 0.01 0.03 0.06 0.14 0.14 0.17 0.21 0.23 0.27 0.24 0.20 0.13 0.07 0.05
0.03 0.02 0.03 0.02 0.01 0.00 0.01 0.01 0.01 0.05 0.06 0.05 0.03 0.04 0.04 0.02 0.01 0.01 0.00 0.00 0.00 0.00 0.00 0.00 0.00 0.00 0.00 0.00 0.00 0.00 0.00 0.03 0.09 0.11 0.15 0.25 0.35 0.31 0.34 0.36 0.29 0.19 0.14
0.09 0.06 0.04 0.03 0.02 0.01 0.01 0.01 0.01 0.02 0.03 0.03 0.02 0.02 0.03 0.02 0.02 0.01 0.01 0.00 0.00 0.00 0.00 0.00 0.00 0.00 0.00 0.00 0.00 0.00 0.00 0.00 0.01 0.02 0.03 0.08 0.19 0.32 0.40 0.41 0.34 0.29 0.23
0.14 0.12 0.11 0.08 0.06 0.05 0.04 0.03 0.03 0.03 0.05 0.04 0.04 0.02 0.03 0.04 0.04 0.04 0.04 0.03 0.01 0.00 0.00 0.00 0.00 0.00 0.00 0.00 0.00 0.00 0.00 0.00 0.00 0.00 0.01 0.02 0.07 0.15 0.28 0.29 0.27 0.29 0.25
0.20 0.18 0.17 0.17 0.15 0.12 0.10 0.09 0.10 0.13 0.17 0.14 0.12 0.08 0.10 0.12 0.14 0.15 0.16 0.14 0.07 0.03 0.02 0.01 0.01 0.00 0.00 0.01 0.00 0.00 0.00 0.00 0.00 0.00 0.01 0.01 0.02 0.05 0.10 0.09 0.09 0.11 0.15
0.20 0.21 0.22 0.22 0.21 0.20 0.23 0.26 0.35 0.40 0.37 0.39 0.34 0.22 0.25 0.35 0.40 0.44 0.40 0.37 0.27 0.17 0.13 0.09 0.08 0.06 0.04 0.02 0.01 0.01 0.00 0.00 0.00 0.00 0.00 0.01 0.01 0.01 0.02 0.02 0.05 0.04 0.04
0.16 0.18 0.22 0.22 0.25 0.29 0.32 0.39 0.55 0.74 0.68 0.69 0.61 0.43 0.44 0.58 0.75 0.84 0.78 0.70 0.58 0.49 0.40 0.35 0.43 0.41 0.26 0.08 0.06 0.05 0.01 0.00 0.00 0.00 0.00 0.01 0.01 0.02 0.01 0.01 0.02 0.04 0.03
0.13 0.14 0.18 0.25 0.32 0.37 0.43 0.55 0.64 0.72 0.61 0.63 0.65 0.63 0.57 0.56 0.70 0.81 0.93 0.88 0.73 0.69 0.73 0.76 0.90 0.93 0.63 0.29 0.24 0.24 0.14 0.08 0.02 0.01 0.01 0.01 0.01 0.03 0.02 0.01 0.00 0.01 0.02
0.08 0.09 0.12 0.18 0.28 0.39 0.53 0.74 0.91 1.01 1.03 1.04 0.91 0.88 0.80 0.69 0.67 0.69 0.85 0.86 0.75 0.72 0.82 0.92 1.14 1.35 1.10 0.71 0.48 0.49 0.42 0.37 0.18 0.04 0.01 0.02 0.02 0.01 0.02 0.01 0.01 0.01 0.00
0.06 0.06 0.10 0.18 0.32 0.51 0.71 0.95 1.18 1.35 1.34 1.18 1.09 1.00 0.80 0.71 0.67 0.65 0.69 0.75 0.78 0.74 0.86 0.90 0.96 1.29 1.39 1.11 0.85 0.60 0.44 0.38 0.31 0.20 0.06 0.02 0.04 0.02 0.01 0.00 0.01 0.01 0.01
0.10 0.13 0.20 0.38 0.62 0.85 1.06 1.29 1.56 1.56 1.43 1.28 1.17 1.06 0.97 0.87 0.77 0.70 0.73 0.68 0.65 0.67 0.76 0.95 1.08 1.28 1.39 1.26 1.11 0.94 0.78 0.60 0.35 0.32 0.28 0.10 0.03 0.02 0.01 0.00 0.00 0.00 0.01
0.39 0.52 0.72 0.95 1.11 1.18 1.30 1.41 1.54 1.54 1.55 1.46 1.25 1.10 1.02 0.96 0.91 0.87 0.81 0.65 0.55 0.57 0.65 0.80 0.97 1.15 1.34 1.37 1.16 0.96 0.88 0.78 0.67 0.53 0.37 0.26 0.13 0.03 0.01 0.01 0.01 0.00 0.00

GEFSSE_prec_meanprecacc_042.txt.gz
Total_Precipitation_Accumulation
0.00 0.02 0.06 0.07 0.05 0.06 0.06 0.06 0.07 0.07 0.06 0.04 0.03 0.04 0.05 0.06 0.11 0.16 0.17 0.11 0.07 0.07 0.08 0.16 0.20 0.14 0.16 0.22 0.25 0.29 0.35 0.37 0.30 0.23 0.23 0.24 0.19 0.19 0.25 0.25 0.29 0.36 0.17
0.00 0.02 0.06 0.10 0.09 0.08 0.08 0.06 0.08 0.08 0.04 0.03 0.04 0.05 0.04 0.07 0.12 0.13 0.09 0.05 0.04 0.05 0.07 0.15 0.20 0.17 0.18 0.24 0.33 0.41 0.46 0.40 0.32 0.22 0.25 0.27 0.25 0.24 0.26 0.24 0.35 0.37 0.19
0.00 0.01 0.04 0.09 0.10 0.09 0.08 0.06 0.13 0.14 0.07 0.06 0.08 0.07 0.05 0.04 0.06 0.06 0.05 0.03 0.02 0.02 0.04 0.12 0.19 0.18 0.20 0.27 0.36 0.39 0.43 0.41 0.33 0.25 0.34 0.72 0.60 0.34 0.30 0.34 0.34 0.25 0.22
0.00 0.00 0.03 0.07 0.12 0.11 0.09 0.11 0.24 0.23 0.15 0.10 0.09 0.07 0.04 0.03 0.08 0.15 0.14 0.04 0.02 0.02 0.03 0.10 0.17 0.15 0.18 0.27 0.32 0.31 0.31 0.29 0.32 0.39 0.61 0.92 0.85 0.52 0.50 0.47 0.37 0.26 0.24
0.00 0.02 0.11 0.15 0.12 0.11 0.13 0.23 0.36 0.32 0.26 0.17 0.09 0.05 0.04 0.04 0.07 0.14 0.10 0.05 0.02 0.02 0.04 0.09 0.14 0.13 0.14 0.17 0.20 0.20 0.24 0.35 0.46 0.55 0.72 0.74 0.73 0.60 0.56 0.51 0.44 0.32 0.28
0.00 0.02 0.09 0.15 0.12 0.13 0.21 0.33 0.36 0.38 0.42 0.26 0.11 0.05 0.08 0.08 0.09 0.12 0.11 0.05 0.02 0.02 0.02 0.04 0.08 0.12 0.13 0.14 0.15 0.19 0.27 0.40 0.51 0.58 0.68 0.62 0.58 0.50 0.46 0.44 0.43 0.38 0.29
0.00 0.02 0.04 0.14 0.14 0.16 0.25 0.33 0.32 0.37 0.42 0.29 0.11 0.10 0.12 0.07 0.07 0.10 0.13 0.05 0.02 0.01 0.01 0.02 0.05 0.08 0.11 0.14 0.14 0.17 0.21 0.21 0.33 0.47 0.68 0.66 0.48 0.34 0.36 0.39 0.41 0.39 0.34
0.00 0.01 0.03 0.10 0.11 0.15 0.25 0.35 0.29 0.31 0.33 0.23 0.13 0.13 0.10 0.08 0.08 0.11 0.09 0.04 0.01 0.00 0.00 0.01 0.05 0.07 0.08 0.11 0.14 0.18 0.17 0.13 0.19 0.21 0.29 0.48 0.48 0.35 0.28 0.35 0.38 0.32 0.29
0.02 0.01 0.02 0.03 0.04 0.08 0.18 0.29 0.33 0.33 0.29 0.16 0.13 0.10 0.10 0.10 0.07 0.06 0.04 0.02 0.00 0.00 0.00 0.01 0.03 0.04 0.04 0.06 0.09 0.11 0.12 0.09 0.12 0.11 0.12 0.29 0.31 0.25 0.22 0.26 0.33 0.38 0.37
0.03 0.01 0.01 0.01 0.02 0.05 0.07 0.16 0.31 0.36 0.31 0.19 0.14 0.12 0.10 0.07 0.05 0.03 0.01 0.00 0.00 0.00 0.00 0.00 0.01 0.01 0.02 0.03 0.04 0.08 0.08 0.07 0.07 0.07 0.08 0.17 0.22 0.20 0.22 0.19 0.18 0.20 0.22
0.04 0.01 0.01 0.01 0.01 0.08 0.14 0.13 0.27 0.36 0.32 0.18 0.13 0.11 0.11 0.09 0.09 0.08 0.01 0.00 0.00 0.00 0.00 0.01 0.01 0.01 0.01 0.01 0.04 0.09 0.05 0.05 0.06 0.06 0.05 0.08 0.11 0.12 0.15 0.12 0.10 0.09 0.09
0.04 0.05 0.03 0.01 0.01 0.04 0.14 0.36 0.48 0.37 0.26 0.17 0.15 0.08 0.17 0.20 0.17 0.10 0.01 0.00 0.01 0.00 0.00 0.01 0.01 0.00 0.00 0.00 0.02 0.04 0.02 0.03 0.06 0.05 0.03 0.05 0.06 0.05 0.05 0.05 0.04 0.04 0.03
0.04 0.04 0.06 0.02 0.01 0.02 0.14 0.36 0.53 0.57 0.48 0.43 0.25 0.11 0.16 0.11 0.04 0.03 0.01 0.02 0.03 0.00 0.00 0.00 0.00 0.00 0.00 0.00 0.00 0.01 0.02 0.03 0.05 0.06 0.03 0.03 0.04 0.05 0.05 0.04 0.02 0.02 0.01
0.12 0.09 0.08 0.06 0.02 0.01 0.03 0.10 0.20 0.24 0.25 0.27 0.16 0.05 0.04 0.04 0.02 0.01 0.00 0.01 0.01 0.00 0.00 0.00 0.00 0.00 0.00 0.00 0.00 0.01 0.02 0.03 0.13 0.15 0.10 0.08 0.08 0.11 0.11 0.07 0.03 0.02 0.03
0.20 0.23 0.21 0.13 0.07 0.04 0.05 0.06 0.05 0.10 0.12 0.10 0.11 0.08 0.03 0.02 0.02 0.01 0.00 0.00 0.00 0.00 0.00 0.00 0.00 0.00 0.00 0.00 0.00 0.01 0.03 0.06 0.14 0.14 0.17 0.21 0.23 0.27 0.24 0.20 0.13 0.07 0.05
0.23 0.27 0.31 0.24 0.18 0.12 0.09 0.07 0.08 0.10 0.09 0.07 0.05 0.05 0.04 0.02 0.01 0.01 0.01 0.00 0.00 0.00 0.00 0.00 0.00 0.00 0.00 0.00 0.00 0.00 0.00 0.03 0.09 0.11 0.15 0.25 0.35 0.31 0.34 0.36 0.29 0.19 0.14
0.32 0.32 0.34 0.33 0.31 0.26 0.23 0.19 0.16 0.17 0.14 0.11 0.07 0.04 0.04 0.03 0.02 0.02 0.03 0.01 0.01 0.00 0.00 0.00 0.00 0.00 0.00 0.00 0.00 0.00 0.00 0.00 0.01 0.02 0.03 0.08 0.19 0.32 0.40 0.41 0.35 0.29 0.24
0.35 0.34 0.38 0.37 0.37 0.39 0.38 0.38 0.35 0.30 0.25 0.18 0.13 0.09 0.07 0.07 0.07 0.08 0.08 0.05 0.03 0.02 0.01 0.00 0.00 0.00 0.00 0.00 0.00 0.00 0.00 0.00 0.00 0.00 0.01 0.02 0.07 0.15 0.28 0.29 0.27 0.30 0.26
0.36 0.35 0.37 0.39 0.39 0.46 0.49 0.51 0.53 0.52 0.47 0.35 0.28 0.20 0.18 0.20 0.21 0.22 0.23 0.20 0.12 0.05 0.03 0.02 0.01 0.00 0.00 0.01 0.00 0.00 0.00 0.00 0.00 0.00 0.01 0.01 0.02 0.05 0.10 0.09 0.09 0.11 0.15
0.30 0.32 0.35 0.39 0.40 0.45 0.58 0.65 0.74 0.77 0.70 0.68 0.58 0.42 0.42 0.48 0.52 0.55 0.51 0.48 0.35 0.21 0.15 0.10 0.09 0.07 0.04 0.02 0.01 0.01 0.00 0.00 0.00 0.00 0.00 0.01 0.01 0.01 0.02 0.02 0.05 0.04 0.04
0.22 0.24 0.30 0.33 0.40 0.47 0.53 0.66 0.83 1.01 1.00 1.07 1.02 0.79 0.70 0.78 0.93 1.01 0.93 0.84 0.68 0.55 0.44 0.38 0.45 0.43 0.27 0.08 0.07 0.05 0.02 0.01 0.01 0.00 0.00 0.01 0.02 0.02 0.01 0.01 0.02 0.04 0.03
0.15 0.16 0.21 0.29 0.38 0.46 0.54 0.70 0.85 0.96 0.89 0.98 1.10 1.02 0.87 0.81 0.92 1.01 1.12 1.06 0.89 0.80 0.81 0.81 0.94 0.95 0.64 0.30 0.25 0.26 0.15 0.09 0.02 0.02 0.01 0.01 0.02 0.04 0.03 0.01 0.00 0.01 0.02
0.10 0.11 0.14 0.20 0.30 0.43 0.58 0.81 1.01 1.18 1.23 1.25 1.14 1.17 1.12 0.98 0.94 0.91 1.05 1.08 0.98 0.92 0.97 1.03 1.21 1.40 1.14 0.76 0.52 0.54 0.44 0.39 0.21 0.05 0.02 0.03 0.02 0.02 0.03 0.02 0.01 0.01 0.00
0.06 0.07 0.10 0.18 0.32 0.53 0.73 0.98 1.23 1.42 1.43 1.29 1.30 1.28 1.10 0.97 0.92 0.89 0.93 1.01 1.05 0.99 1.06 1.06 1.08 1.39 1.49 1.20 0.95 0.69 0.51 0.42 0.34 0.22 0.07 0.03 0.05 0.03 0.02 0.01 0.01 0.01 0.01
0.11 0.13 0.20 0.39 0.62 0.86 1.06 1.30 1.58 1.59 1.47 1.37 1.33 1.29 1.20 1.12 1.05 1.00 1.04 1.01 0.97 0.97 1.03 1.19 1.28 1.46 1.56 1.42 1.24 1.07 0.90 0.71 0.44 0.38 0.32 0.12 0.04 0.03 0.02 0.01 0.01 0.00 0.01
0.40 0.52 0.73 0.96 1.12 1.19 1.30 1.42 1.55 1.55 1.57 1.51 1.31 1.21 1.17 1.17 1.18 1.18 1.16 1.02 0.91 0.91 0.96 1.09 1.24 1.39 1.56 1.57 1.33 1.10 1.01 0.90 0.79 0.63 0.44 0.30 0.15 0.04 0.02 0.01 0.01 0.01 0.00

GEFSSE_prec_meanprecacc_048.txt.gz
Total_Precipitation_Accumulation
0.00 0.02 0.07 0.10 0.10 0.11 0.11 0.10 0.11 0.11 0.11 0.09 0.07 0.08 0.08 0.08 0.13 0.19 0.20 0.14 0.10 0.09 0.10 0.17 0.21 0.16 0.18 0.23 0.27 0.31 0.37 0.38 0.31 0.24 0.24 0.24 0.20 0.20 0.25 0.25 0.29 0.37 0.18
0.00 0.02 0.07 0.11 0.11 0.11 0.11 0.08 0.11 0.11 0.08 0.07 0.07 0.07 0.07 0.09 0.15 0.15 0.12 0.08 0.06 0.06 0.09 0.17 0.23 0.19 0.20 0.27 0.37 0.44 0.49 0.43 0.33 0.23 0.26 0.28 0.25 0.25 0.27 0.25 0.35 0.38 0.19
0.00 0.01 0.05 0.10 0.11 0.10 0.09 0.08 0.16 0.16 0.09 0.08 0.09 0.08 0.06 0.06 0.08 0.08 0.07 0.05 0.04 0.04 0.06 0.14 0.22 0.20 0.22 0.31 0.41 0.44 0.47 0.44 0.34 0.26 0.36 0.73 0.61 0.35 0.30 0.36 0.35 0.25 0.22
0.00 0.01 0.03 0.08 0.13 0.12 0.10 0.13 0.26 0.25 0.16 0.11 0.10 0.08 0.05 0.04 0.09 0.16 0.16 0.06 0.04 0.04 0.05 0.12 0.19 0.18 0.21 0.31 0.36 0.35 0.35 0.32 0.34 0.39 0.63 0.93 0.86 0.53 0.51 0.50 0.40 0.26 0.24
0.00 0.02 0.11 0.15 0.13 0.11 0.14 0.24 0.37 0.33 0.27 0.18 0.09 0.06 0.04 0.05 0.08 0.15 0.11 0.06 0.02 0.03 0.05 0.10 0.16 0.16 0.17 0.21 0.24 0.25 0.30 0.39 0.49 0.56 0.73 0.76 0.76 0.63 0.59 0.54 0.47 0.33 0.29
0.00 0.02 0.09 0.15 0.13 0.14 0.22 0.33 0.37 0.39 0.43 0.27 0.12 0.06 0.08 0.08 0.09 0.13 0.11 0.06 0.02 0.02 0.03 0.05 0.10 0.15 0.16 0.19 0.21 0.24 0.34 0.47 0.55 0.61 0.70 0.64 0.61 0.53 0.49 0.47 0.46 0.40 0.32
0.00 0.02 0.05 0.15 0.15 0.17 0.26 0.34 0.32 0.38 0.43 0.30 0.12 0.11 0.12 0.08 0.07 0.11 0.13 0.05 0.02 0.01 0.01 0.03 0.06 0.10 0.14 0.18 0.19 0.23 0.29 0.28 0.37 0.51 0.69 0.68 0.50 0.36 0.39 0.42 0.43 0.41 0.37
0.00 0.01 0.03 0.10 0.12 0.16 0.26 0.36 0.30 0.32 0.34 0.24 0.14 0.13 0.10 0.09 0.08 0.11 0.09 0.04 0.01 0.00 0.00 0.01 0.06 0.09 0.11 0.14 0.18 0.23 0.24 0.18 0.22 0.23 0.30 0.50 0.51 0.38 0.30 0.38 0.41 0.35 0.33
0.02 0.01 0.02 0.03 0.05 0.09 0.18 0.30 0.34 0.34 0.31 0.17 0.13 0.10 0.10 0.10 0.08 0.06 0.04 0.02 0.00 0.00 0.00 0.01 0.04 0.05 0.06 0.09 0.13 0.17 0.20 0.15 0.18 0.15 0.13 0.30 0.35 0.28 0.24 0.29 0.37 0.41 0.40
0.03 0.01 0.01 0.02 0.03 0.07 0.09 0.18 0.33 0.40 0.34 0.21 0.15 0.13 0.11 0.08 0.05 0.04 0.01 0.00 0.00 0.00 0.00 0.01 0.01 0.02 0.04 0.05 0.08 0.14 0.15 0.14 0.15 0.10 0.10 0.19 0.26 0.24 0.25 0.21 0.22 0.23 0.25
0.04 0.01 0.01 0.01 0.02 0.09 0.17 0.16 0.31 0.43 0.38 0.21 0.15 0.11 0.11 0.11 0.10 0.09 0.02 0.00 0.00 0.00 0.00 0.01 0.01 0.01 0.01 0.02 0.07 0.12 0.09 0.11 0.14 0.10 0.07 0.10 0.14 0.15 0.17 0.13 0.12 0.12 0.11
0.08 0.07 0.04 0.01 0.02 0.05 0.15 0.38 0.54 0.45 0.33 0.22 0.20 0.10 0.19 0.22 0.19 0.11 0.02 0.01 0.01 0.00 0.00 0.01 0.01 0.01 0.00 0.00 0.03 0.05 0.06 0.07 0.11 0.08 0.04 0.06 0.08 0.07 0.07 0.06 0.05 0.05 0.04
0.15 0.13 0.10 0.05 0.03 0.04 0.16 0.38 0.58 0.65 0.57 0.51 0.30 0.15 0.20 0.14 0.05 0.03 0.01 0.03 0.03 0.01 0.00 0.00 0.00 0.00 0.00 0.00 0.00 0.02 0.03 0.04 0.08 0.09 0.04 0.04 0.05 0.06 0.06 0.05 0.03 0.02 0.02
0.27 0.25 0.19 0.15 0.09 0.06 0.08 0.14 0.25 0.30 0.32 0.34 0.22 0.10 0.10 0.09 0.04 0.01 0.01 0.01 0.02 0.01 0.00 0.00 0.00 0.00 0.00 0.00 0.00 0.01 0.02 0.03 0.13 0.17 0.12 0.08 0.09 0.12 0.12 0.07 0.03 0.03 0.03
0.36 0.42 0.39 0.28 0.23 0.18 0.16 0.16 0.12 0.18 0.20 0.19 0.20 0.15 0.09 0.07 0.04 0.03 0.01 0.00 0.00 0.00 0.00 0.00 0.00 0.00 0.00 0.00 0.00 0.01 0.03 0.06 0.15 0.14 0.17 0.21 0.24 0.27 0.25 0.21 0.14 0.07 0.05
0.44 0.50 0.55 0.46 0.39 0.32 0.26 0.22 0.21 0.25 0.26 0.23 0.16 0.14 0.12 0.08 0.05 0.04 0.02 0.01 0.01 0.00 0.00 0.00 0.00 0.00 0.00 0.00 0.00 0.00 0.00 0.03 0.09 0.11 0.15 0.25 0.35 0.31 0.35 0.37 0.29 0.19 0.15
0.49 0.51 0.54 0.55 0.54 0.50 0.47 0.42 0.35 0.38 0.40 0.35 0.29 0.21 0.15 0.12 0.08 0.07 0.06 0.04 0.02 0.01 0.00 0.00 0.00 0.00 0.00 0.00 0.00 0.00 0.00 0.00 0.01 0.02 0.03 0.08 0.20 0.32 0.40 0.41 0.36 0.30 0.24
0.45 0.45 0.49 0.51 0.55 0.60 0.62 0.62 0.61 0.56 0.56 0.46 0.41 0.32 0.23 0.19 0.17 0.16 0.14 0.11 0.07 0.04 0.02 0.02 0.01 0.00 0.00 0.00 0.00 0.00 0.00 0.00 0.00 0.00 0.01 0.02 0.07 0.15 0.28 0.29 0.28 0.30 0.26
0.41 0.40 0.42 0.46 0.48 0.59 0.67 0.70 0.76 0.76 0.73 0.62 0.54 0.43 0.37 0.37 0.37 0.36 0.34 0.30 0.21 0.11 0.07 0.04 0.02 0.01 0.00 0.01 0.00 0.00 0.00 0.00 0.00 0.00 0.01 0.01 0.02 0.05 0.10 0.09 0.09 0.11 0.15
0.32 0.34 0.38 0.42 0.44 0.52 0.66 0.78 0.93 1.01 0.96 0.93 0.81 0.64 0.63 0.68 0.74 0.76 0.69 0.65 0.51 0.32 0.22 0.13 0.11 0.08 0.05 0.03 0.01 0.01 0.00 0.00 0.00 0.00 0.01 0.01 0.01 0.01 0.02 0.02 0.05 0.04 0.04
0.22 0.25 0.30 0.34 0.41 0.50 0.57 0.71 0.93 1.18 1.26 1.33 1.25 1.02 0.93 1.00 1.14 1.22 1.13 1.04 0.85 0.67 0.55 0.46 0.49 0.46 0.29 0.10 0.09 0.08 0.03 0.01 0.01 0.01 0.01 0.01 0.02 0.02 0.01 0.01 0.02 0.04 0.03
0.15 0.16 0.22 0.29 0.39 0.47 0.56 0.73 0.89 1.03 1.01 1.15 1.27 1.20 1.07 1.05 1.16 1.23 1.33 1.24 1.04 0.95 0.97 0.93 1.02 1.03 0.68 0.32 0.29 0.32 0.20 0.12 0.04 0.02 0.01 0.01 0.02 0.04 0.03 0.01 0.00 0.01 0.02
0.10 0.11 0.15 0.20 0.31 0.44 0.59 0.82 1.03 1.22 1.28 1.32 1.23 1.28 1.25 1.15 1.16 1.20 1.30 1.32 1.18 1.11 1.14 1.18 1.33 1.52 1.23 0.81 0.56 0.59 0.49 0.44 0.26 0.07 0.02 0.03 0.03 0.03 0.04 0.03 0.02 0.01 0.01
0.07 0.08 0.11 0.19 0.33 0.53 0.74 0.99 1.24 1.44 1.46 1.34 1.37 1.38 1.24 1.13 1.08 1.10 1.18 1.25 1.27 1.19 1.24 1.23 1.20 1.48 1.59 1.28 1.02 0.75 0.57 0.48 0.41 0.28 0.10 0.04 0.05 0.04 0.04 0.04 0.03 0.02 0.01
0.13 0.15 0.21 0.40 0.64 0.87 1.08 1.32 1.60 1.61 1.50 1.40 1.39 1.35 1.27 1.22 1.18 1.16 1.24 1.25 1.19 1.18 1.22 1.39 1.44 1.57 1.65 1.52 1.34 1.16 0.99 0.78 0.50 0.46 0.40 0.18 0.07 0.04 0.03 0.02 0.04 0.03 0.02
0.42 0.55 0.75 1.00 1.17 1.24 1.35 1.46 1.58 1.58 1.59 1.53 1.34 1.25 1.22 1.23 1.26 1.30 1.32 1.24 1.13 1.11 1.17 1.31 1.46 1.56 1.70 1.69 1.44 1.22 1.13 1.01 0.90 0.75 0.56 0.42 0.24 0.08 0.04 0.03 0.02 0.02 0.03

GEFSSE_prec_meanprecacc_054.txt.gz
Total_Precipitation_Accumulation
0.00 0.02 0.07 0.10 0.11 0.13 0.13 0.13 0.14 0.14 0.15 0.12 0.11 0.10 0.10 0.10 0.14 0.19 0.20 0.14 0.10 0.10 0.10 0.18 0.23 0.17 0.19 0.25 0.29 0.33 0.39 0.41 0.32 0.25 0.25 0.25 0.21 0.21 0.26 0.28 0.38 0.46 0.22
0.00 0.02 0.07 0.12 0.12 0.13 0.13 0.11 0.13 0.14 0.11 0.10 0.10 0.10 0.09 0.11 0.17 0.17 0.13 0.09 0.06 0.07 0.10 0.18 0.24 0.21 0.22 0.29 0.40 0.48 0.52 0.46 0.36 0.26 0.31 0.33 0.28 0.26 0.28 0.28 0.43 0.45 0.22
0.00 0.01 0.05 0.10 0.12 0.11 0.11 0.10 0.17 0.18 0.11 0.10 0.11 0.10 0.08 0.08 0.09 0.09 0.09 0.06 0.05 0.05 0.07 0.15 0.23 0.23 0.24 0.34 0.45 0.48 0.49 0.47 0.37 0.31 0.54 0.94 0.67 0.36 0.31 0.38 0.38 0.28 0.24
0.00 0.01 0.03 0.08 0.14 0.13 0.10 0.14 0.28 0.27 0.17 0.12 0.11 0.09 0.05 0.05 0.10 0.17 0.17 0.06 0.04 0.05 0.05 0.13 0.21 0.20 0.24 0.33 0.39 0.38 0.38 0.35 0.37 0.48 0.90 1.17 0.99 0.56 0.53 0.52 0.42 0.29 0.26
0.00 0.02 0.12 0.15 0.13 0.12 0.15 0.25 0.38 0.34 0.28 0.19 0.10 0.06 0.05 0.05 0.08 0.15 0.11 0.06 0.03 0.03 0.05 0.11 0.18 0.18 0.19 0.24 0.28 0.28 0.34 0.43 0.52 0.65 0.90 0.96 0.92 0.67 0.61 0.57 0.51 0.37 0.31
0.00 0.03 0.10 0.15 0.13 0.14 0.22 0.34 0.37 0.39 0.43 0.27 0.12 0.07 0.08 0.08 0.10 0.13 0.11 0.06 0.03 0.02 0.04 0.06 0.11 0.17 0.19 0.22 0.23 0.28 0.38 0.51 0.61 0.72 0.85 0.85 0.77 0.57 0.52 0.50 0.50 0.45 0.37
0.00 0.02 0.05 0.15 0.15 0.18 0.27 0.36 0.33 0.38 0.43 0.31 0.12 0.11 0.13 0.08 0.08 0.11 0.13 0.05 0.02 0.01 0.01 0.03 0.07 0.11 0.16 0.21 0.22 0.26 0.33 0.32 0.44 0.59 0.82 0.86 0.59 0.38 0.42 0.45 0.46 0.46 0.42
0.00 0.01 0.04 0.11 0.13 0.18 0.28 0.38 0.32 0.33 0.35 0.24 0.14 0.14 0.10 0.09 0.09 0.11 0.09 0.04 0.01 0.00 0.00 0.02 0.07 0.09 0.12 0.16 0.21 0.26 0.27 0.22 0.29 0.31 0.41 0.63 0.55 0.40 0.32 0.40 0.45 0.40 0.37
0.03 0.02 0.03 0.05 0.06 0.11 0.22 0.34 0.38 0.37 0.33 0.19 0.14 0.11 0.11 0.11 0.08 0.06 0.04 0.02 0.01 0.00 0.00 0.01 0.04 0.06 0.07 0.10 0.15 0.19 0.22 0.18 0.24 0.22 0.24 0.40 0.38 0.30 0.26 0.31 0.41 0.46 0.43
0.04 0.02 0.03 0.06 0.10 0.18 0.19 0.26 0.39 0.46 0.39 0.24 0.17 0.14 0.12 0.08 0.05 0.04 0.01 0.01 0.00 0.00 0.00 0.01 0.01 0.03 0.05 0.06 0.10 0.15 0.17 0.16 0.20 0.17 0.18 0.24 0.28 0.27 0.26 0.23 0.25 0.26 0.28
0.06 0.03 0.04 0.07 0.11 0.20 0.30 0.31 0.46 0.56 0.46 0.27 0.19 0.14 0.13 0.13 0.16 0.14 0.03 0.01 0.00 0.00 0.00 0.01 0.01 0.01 0.01 0.03 0.08 0.13 0.10 0.13 0.18 0.15 0.13 0.12 0.16 0.17 0.18 0.15 0.13 0.14 0.13
0.13 0.11 0.07 0.06 0.08 0.14 0.24 0.55 0.78 0.68 0.57 0.35 0.38 0.25 0.26 0.31 0.35 0.22 0.09 0.03 0.01 0.00 0.00 0.01 0.01 0.01 0.00 0.00 0.03 0.06 0.07 0.09 0.13 0.10 0.07 0.08 0.09 0.08 0.08 0.07 0.06 0.07 0.06
0.20 0.18 0.14 0.10 0.08 0.11 0.26 0.52 0.78 0.92 0.87 0.79 0.58 0.39 0.38 0.26 0.17 0.10 0.07 0.08 0.05 0.01 0.00 0.01 0.00 0.00 0.00 0.01 0.01 0.03 0.05 0.06 0.11 0.11 0.06 0.05 0.07 0.08 0.08 0.06 0.04 0.03 0.03
0.32 0.31 0.25 0.20 0.15 0.14 0.17 0.26 0.40 0.48 0.53 0.56 0.40 0.26 0.33 0.29 0.17 0.12 0.09 0.09 0.07 0.03 0.01 0.01 0.00 0.00 0.00 0.01 0.01 0.02 0.03 0.04 0.15 0.19 0.13 0.09 0.10 0.13 0.13 0.08 0.04 0.04 0.04
0.41 0.48 0.45 0.34 0.30 0.26 0.25 0.27 0.26 0.34 0.38 0.36 0.39 0.30 0.27 0.25 0.16 0.12 0.06 0.05 0.04 0.03 0.01 0.01 0.00 0.00 0.00 0.01 0.01 0.03 0.04 0.06 0.16 0.15 0.18 0.22 0.24 0.27 0.25 0.21 0.14 0.08 0.06
0.48 0.55 0.60 0.51 0.45 0.41 0.36 0.34 0.31 0.37 0.41 0.40 0.32 0.25 0.25 0.26 0.17 0.13 0.07 0.05 0.04 0.03 0.02 0.00 0.00 0.00 0.00 0.00 0.00 0.01 0.02 0.04 0.10 0.12 0.16 0.25 0.35 0.31 0.35 0.37 0.30 0.19 0.15
0.52 0.54 0.57 0.58 0.57 0.55 0.53 0.50 0.46 0.50 0.54 0.50 0.42 0.31 0.27 0.28 0.24 0.18 0.13 0.09 0.06 0.04 0.03 0.01 0.00 0.00 0.00 0.00 0.00 0.00 0.01 0.01 0.01 0.02 0.04 0.08 0.20 0.32 0.40 0.41 0.36 0.30 0.24
0.46 0.46 0.51 0.53 0.57 0.63 0.65 0.66 0.68 0.66 0.69 0.61 0.55 0.44 0.34 0.31 0.30 0.32 0.25 0.18 0.12 0.09 0.06 0.04 0.02 0.01 0.00 0.00 0.00 0.00 0.00 0.00 0.00 0.00 0.01 0.02 0.07 0.15 0.28 0.29 0.28 0.30 0.27
0.41 0.41 0.43 0.47 0.50 0.61 0.69 0.71 0.79 0.81 0.82 0.77 0.72 0.59 0.53 0.51 0.49 0.51 0.48 0.40 0.29 0.20 0.12 0.07 0.04 0.02 0.01 0.01 0.00 0.00 0.00 0.00 0.00 0.00 0.01 0.01 0.02 0.05 0.10 0.09 0.09 0.11 0.15
0.32 0.34 0.38 0.43 0.45 0.52 0.67 0.79 0.94 1.05 1.01 1.02 0.94 0.79 0.78 0.86 0.93 0.97 0.86 0.78 0.65 0.45 0.32 0.20 0.15 0.10 0.06 0.04 0.02 0.02 0.01 0.00 0.00 0.00 0.01 0.01 0.01 0.01 0.02 0.02 0.05 0.04 0.04
0.22 0.25 0.31 0.34 0.42 0.50 0.58 0.72 0.94 1.21 1.30 1.39 1.32 1.13 1.05 1.13 1.31 1.43 1.32 1.22 1.03 0.81 0.68 0.57 0.57 0.52 0.33 0.12 0.12 0.10 0.04 0.01 0.01 0.01 0.01 0.01 0.02 0.02 0.01 0.01 0.02 0.05 0.03
0.15 0.17 0.22 0.30 0.39 0.48 0.57 0.74 0.90 1.05 1.05 1.21 1.35 1.30 1.18 1.15 1.26 1.37 1.53 1.48 1.25 1.14 1.16 1.10 1.19 1.18 0.77 0.35 0.33 0.39 0.27 0.18 0.06 0.02 0.02 0.02 0.02 0.04 0.03 0.02 0.01 0.02 0.02
0.10 0.12 0.15 0.21 0.32 0.45 0.60 0.84 1.05 1.23 1.31 1.37 1.28 1.35 1.32 1.22 1.24 1.30 1.43 1.52 1.40 1.35 1.35 1.37 1.53 1.74 1.39 0.88 0.61 0.66 0.58 0.54 0.35 0.10 0.04 0.04 0.04 0.03 0.04 0.04 0.03 0.04 0.03
0.08 0.08 0.12 0.20 0.35 0.56 0.77 1.02 1.27 1.47 1.50 1.39 1.43 1.45 1.30 1.21 1.16 1.20 1.29 1.39 1.45 1.40 1.44 1.41 1.37 1.66 1.78 1.43 1.10 0.81 0.62 0.55 0.52 0.40 0.17 0.07 0.07 0.05 0.05 0.05 0.04 0.04 0.04
0.14 0.16 0.23 0.43 0.67 0.93 1.14 1.38 1.66 1.67 1.55 1.45 1.44 1.41 1.35 1.32 1.28 1.25 1.35 1.38 1.35 1.36 1.41 1.59 1.65 1.78 1.86 1.70 1.50 1.28 1.09 0.88 0.57 0.58 0.56 0.30 0.15 0.10 0.06 0.05 0.05 0.04 0.03
0.44 0.58 0.78 1.04 1.24 1.32 1.44 1.58 1.69 1.67 1.68 1.61 1.41 1.32 1.30 1.32 1.36 1.40 1.45 1.40 1.31 1.30 1.36 1.51 1.68 1.79 1.92 1.94 1.68 1.40 1.28 1.13 1.01 0.88 0.70 0.59 0.42 0.21 0.10 0.07 0.06 0.05 0.05

GEFSSE_prec_meanprecacc_060.txt.gz
Total_Precipitation_Accumulation
0.01 0.03 0.08 0.10 0.11 0.13 0.13 0.13 0.14 0.15 0.15 0.12 0.11 0.10 0.10 0.10 0.14 0.19 0.20 0.14 0.10 0.10 0.10 0.18 0.23 0.18 0.20 0.25 0.29 0.34 0.40 0.41 0.33 0.25 0.25 0.26 0.22 0.22 0.29 0.36 0.44 0.49 0.27
0.00 0.02 0.08 0.12 0.12 0.13 0.13 0.11 0.13 0.15 0.12 0.10 0.10 0.10 0.09 0.11 0.17 0.17 0.14 0.09 0.07 0.07 0.10 0.18 0.24 0.21 0.22 0.30 0.40 0.49 0.53 0.46 0.37 0.27 0.32 0.34 0.29 0.27 0.32 0.36 0.49 0.47 0.26
0.00 0.01 0.05 0.10 0.12 0.11 0.11 0.10 0.17 0.18 0.11 0.10 0.11 0.10 0.08 0.08 0.09 0.09 0.09 0.07 0.05 0.05 0.07 0.16 0.23 0.23 0.25 0.35 0.46 0.49 0.50 0.47 0.38 0.33 0.57 0.97 0.68 0.39 0.35 0.43 0.43 0.30 0.26
0.00 0.01 0.03 0.08 0.14 0.13 0.10 0.14 0.28 0.27 0.18 0.13 0.11 0.10 0.06 0.05 0.10 0.17 0.17 0.06 0.05 0.05 0.06 0.13 0.21 0.21 0.24 0.34 0.40 0.38 0.38 0.36 0.38 0.50 0.94 1.22 1.02 0.60 0.56 0.55 0.46 0.33 0.28
0.00 0.02 0.12 0.15 0.13 0.12 0.15 0.25 0.38 0.34 0.28 0.19 0.10 0.06 0.05 0.05 0.08 0.15 0.11 0.06 0.03 0.04 0.05 0.11 0.18 0.19 0.20 0.24 0.28 0.29 0.35 0.45 0.55 0.68 0.93 0.98 0.94 0.71 0.64 0.59 0.53 0.39 0.34
0.00 0.03 0.10 0.15 0.13 0.14 0.22 0.34 0.37 0.39 0.43 0.27 0.12 0.07 0.08 0.08 0.10 0.13 0.11 0.06 0.03 0.02 0.04 0.06 0.11 0.17 0.19 0.22 0.24 0.28 0.39 0.54 0.65 0.75 0.88 0.87 0.79 0.61 0.55 0.53 0.52 0.48 0.40
0.02 0.03 0.05 0.16 0.16 0.18 0.28 0.36 0.34 0.38 0.44 0.31 0.12 0.12 0.13 0.08 0.08 0.11 0.13 0.05 0.02 0.01 0.01 0.03 0.07 0.11 0.16 0.21 0.22 0.27 0.34 0.34 0.48 0.65 0.88 0.90 0.63 0.43 0.44 0.47 0.48 0.47 0.44
0.08 0.05 0.07 0.15 0.16 0.20 0.29 0.39 0.32 0.33 0.36 0.25 0.14 0.14 0.11 0.09 0.09 0.11 0.09 0.04 0.01 0.00 0.00 0.02 0.07 0.10 0.12 0.16 0.21 0.27 0.29 0.25 0.35 0.41 0.48 0.68 0.61 0.45 0.36 0.43 0.47 0.42 0.39
0.25 0.20 0.16 0.16 0.15 0.19 0.28 0.38 0.41 0.39 0.35 0.20 0.15 0.12 0.11 0.11 0.08 0.06 0.04 0.02 0.01 0.00 0.00 0.01 0.04 0.06 0.07 0.10 0.15 0.20 0.24 0.21 0.30 0.33 0.31 0.45 0.45 0.35 0.29 0.34 0.44 0.49 0.45
0.27 0.26 0.24 0.25 0.27 0.32 0.31 0.38 0.51 0.55 0.44 0.28 0.19 0.16 0.13 0.09 0.06 0.04 0.01 0.01 0.00 0.00 0.00 0.01 0.01 0.03 0.05 0.06 0.11 0.17 0.19 0.21 0.29 0.27 0.25 0.30 0.37 0.33 0.29 0.25 0.27 0.29 0.29
0.25 0.24 0.26 0.31 0.36 0.43 0.49 0.49 0.66 0.71 0.58 0.36 0.24 0.18 0.15 0.14 0.17 0.14 0.04 0.02 0.01 0.00 0.00 0.01 0.01 0.01 0.02 0.03 0.09 0.15 0.13 0.21 0.30 0.24 0.19 0.21 0.24 0.23 0.21 0.17 0.14 0.14 0.13
0.31 0.30 0.28 0.29 0.35 0.42 0.48 0.79 0.99 0.81 0.69 0.45 0.45 0.31 0.29 0.33 0.36 0.23 0.11 0.07 0.04 0.02 0.01 0.01 0.01 0.01 0.01 0.00 0.03 0.07 0.10 0.18 0.26 0.18 0.12 0.16 0.17 0.13 0.10 0.09 0.07 0.07 0.06
0.33 0.31 0.28 0.25 0.25 0.31 0.47 0.73 0.97 1.05 0.99 0.87 0.64 0.44 0.44 0.30 0.21 0.14 0.10 0.11 0.09 0.04 0.01 0.01 0.01 0.00 0.00 0.01 0.02 0.04 0.09 0.13 0.24 0.21 0.11 0.13 0.14 0.13 0.10 0.06 0.04 0.04 0.04
0.40 0.39 0.35 0.33 0.28 0.28 0.33 0.43 0.56 0.64 0.67 0.65 0.46 0.32 0.42 0.39 0.27 0.22 0.18 0.16 0.11 0.06 0.03 0.02 0.01 0.00 0.00 0.01 0.03 0.05 0.08 0.11 0.24 0.27 0.18 0.14 0.15 0.17 0.14 0.08 0.05 0.04 0.05
0.48 0.54 0.51 0.42 0.39 0.36 0.37 0.42 0.45 0.55 0.55 0.50 0.48 0.39 0.39 0.41 0.35 0.28 0.19 0.15 0.11 0.09 0.05 0.02 0.01 0.01 0.01 0.02 0.05 0.08 0.09 0.14 0.23 0.21 0.21 0.25 0.27 0.30 0.27 0.22 0.14 0.08 0.07
0.52 0.58 0.63 0.55 0.50 0.45 0.42 0.43 0.46 0.54 0.58 0.56 0.48 0.40 0.43 0.48 0.41 0.32 0.23 0.19 0.17 0.14 0.13 0.06 0.02 0.02 0.01 0.02 0.02 0.04 0.07 0.11 0.17 0.17 0.18 0.27 0.36 0.33 0.36 0.38 0.30 0.20 0.16
0.53 0.56 0.59 0.60 0.59 0.57 0.56 0.54 0.52 0.57 0.66 0.64 0.56 0.47 0.43 0.46 0.46 0.42 0.34 0.28 0.24 0.22 0.18 0.14 0.07 0.04 0.03 0.02 0.01 0.01 0.02 0.04 0.04 0.06 0.06 0.08 0.20 0.33 0.40 0.42 0.36 0.30 0.24
0.46 0.47 0.52 0.54 0.59 0.65 0.67 0.68 0.70 0.69 0.74 0.69 0.66 0.57 0.48 0.46 0.45 0.50 0.46 0.39 0.31 0.29 0.27 0.23 0.13 0.08 0.04 0.02 0.01 0.00 0.01 0.01 0.02 0.03 0.03 0.03 0.07 0.15 0.28 0.29 0.28 0.30 0.27
0.41 0.41 0.44 0.48 0.51 0.62 0.70 0.73 0.81 0.83 0.84 0.80 0.77 0.67 0.63 0.65 0.64 0.69 0.70 0.63 0.53 0.44 0.35 0.24 0.16 0.10 0.05 0.04 0.02 0.01 0.00 0.01 0.01 0.02 0.02 0.02 0.02 0.05 0.11 0.09 0.09 0.11 0.15
0.32 0.34 0.38 0.43 0.45 0.53 0.68 0.80 0.95 1.05 1.02 1.03 0.96 0.83 0.84 0.96 1.06 1.12 1.04 1.01 0.93 0.69 0.53 0.37 0.29 0.21 0.13 0.09 0.06 0.04 0.02 0.02 0.02 0.02 0.02 0.02 0.02 0.02 0.02 0.02 0.05 0.04 0.05
0.22 0.25 0.31 0.34 0.42 0.50 0.58 0.72 0.94 1.21 1.31 1.39 1.34 1.16 1.10 1.20 1.41 1.55 1.45 1.40 1.27 1.04 0.89 0.78 0.79 0.71 0.45 0.20 0.20 0.16 0.08 0.04 0.04 0.04 0.02 0.02 0.03 0.04 0.02 0.01 0.02 0.05 0.03
0.15 0.17 0.22 0.30 0.39 0.48 0.57 0.74 0.90 1.05 1.05 1.21 1.35 1.31 1.22 1.20 1.34 1.46 1.65 1.63 1.45 1.33 1.36 1.31 1.42 1.41 0.93 0.47 0.43 0.48 0.33 0.23 0.10 0.06 0.04 0.03 0.04 0.06 0.05 0.03 0.02 0.02 0.03
0.10 0.12 0.15 0.22 0.32 0.45 0.61 0.84 1.05 1.24 1.32 1.37 1.29 1.36 1.36 1.27 1.30 1.38 1.53 1.65 1.58 1.54 1.53 1.55 1.72 1.94 1.58 1.03 0.71 0.76 0.63 0.58 0.39 0.14 0.07 0.07 0.07 0.06 0.07 0.07 0.06 0.06 0.06
0.08 0.08 0.12 0.20 0.35 0.56 0.77 1.03 1.28 1.48 1.51 1.40 1.44 1.46 1.33 1.25 1.21 1.27 1.39 1.51 1.59 1.56 1.59 1.57 1.52 1.83 1.96 1.59 1.24 0.90 0.67 0.59 0.54 0.42 0.21 0.13 0.13 0.10 0.09 0.09 0.07 0.07 0.09
0.14 0.16 0.23 0.43 0.67 0.93 1.14 1.40 1.68 1.69 1.57 1.47 1.47 1.44 1.37 1.36 1.33 1.31 1.43 1.48 1.48 1.51 1.56 1.75 1.82 1.95 2.01 1.85 1.65 1.41 1.19 0.95 0.61 0.60 0.59 0.37 0.25 0.20 0.15 0.12 0.10 0.10 0.09
0.44 0.58 0.79 1.05 1.24 1.33 1.45 1.60 1.72 1.69 1.70 1.64 1.45 1.35 1.33 1.36 1.40 1.46 1.51 1.48 1.43 1.43 1.51 1.66 1.82 1.93 2.07 2.09 1.83 1.56 1.41 1.24 1.09 0.94 0.73 0.62 0.50 0.34 0.29 0.25 0.19 0.16 0.17

GEFSSE_prec_meanprecacc_066.txt.gz
Total_Precipitation_Accumulation
0.02 0.04 0.11 0.13 0.13 0.14 0.14 0.13 0.14 0.15 0.15 0.13 0.11 0.11 0.10 0.10 0.14 0.19 0.20 0.14 0.11 0.10 0.11 0.19 0.24 0.18 0.20 0.26 0.29 0.34 0.40 0.41 0.33 0.26 0.25 0.26 0.23 0.25 0.33 0.41 0.46 0.50 0.31
0.00 0.02 0.11 0.15 0.15 0.15 0.14 0.12 0.14 0.15 0.12 0.10 0.10 0.10 0.10 0.12 0.17 0.17 0.14 0.09 0.07 0.07 0.10 0.19 0.25 0.22 0.23 0.30 0.41 0.49 0.53 0.47 0.38 0.28 0.32 0.34 0.29 0.29 0.34 0.39 0.52 0.49 0.30
0.00 0.01 0.06 0.13 0.14 0.13 0.12 0.11 0.18 0.18 0.11 0.10 0.11 0.10 0.08 0.08 0.09 0.09 0.09 0.07 0.05 0.05 0.07 0.16 0.24 0.24 0.25 0.35 0.46 0.49 0.50 0.48 0.39 0.33 0.57 0.97 0.69 0.39 0.36 0.45 0.47 0.34 0.29
0.00 0.01 0.03 0.09 0.16 0.15 0.13 0.15 0.29 0.27 0.18 0.13 0.11 0.10 0.06 0.05 0.10 0.17 0.17 0.07 0.05 0.05 0.06 0.13 0.21 0.21 0.25 0.35 0.40 0.38 0.39 0.37 0.40 0.51 0.94 1.22 1.02 0.60 0.57 0.57 0.49 0.38 0.32
0.00 0.02 0.13 0.18 0.16 0.14 0.17 0.26 0.39 0.35 0.28 0.19 0.10 0.07 0.05 0.05 0.08 0.16 0.11 0.07 0.03 0.04 0.06 0.12 0.19 0.19 0.20 0.25 0.29 0.29 0.36 0.47 0.59 0.69 0.93 0.99 0.94 0.72 0.66 0.61 0.56 0.42 0.37
0.02 0.04 0.13 0.21 0.18 0.17 0.24 0.36 0.38 0.40 0.44 0.28 0.12 0.07 0.08 0.08 0.10 0.13 0.11 0.06 0.03 0.03 0.04 0.07 0.12 0.18 0.19 0.22 0.24 0.29 0.40 0.57 0.67 0.76 0.88 0.88 0.79 0.62 0.57 0.57 0.56 0.52 0.45
0.09 0.10 0.14 0.26 0.24 0.25 0.33 0.39 0.36 0.40 0.44 0.31 0.13 0.12 0.13 0.08 0.08 0.11 0.13 0.06 0.03 0.02 0.02 0.04 0.08 0.12 0.17 0.22 0.23 0.28 0.35 0.38 0.49 0.66 0.88 0.90 0.64 0.45 0.47 0.51 0.52 0.52 0.50
0.28 0.22 0.22 0.31 0.31 0.33 0.39 0.46 0.39 0.38 0.38 0.26 0.15 0.14 0.11 0.09 0.09 0.11 0.09 0.04 0.01 0.01 0.01 0.02 0.08 0.11 0.13 0.18 0.22 0.29 0.30 0.28 0.36 0.41 0.48 0.69 0.64 0.48 0.39 0.47 0.52 0.47 0.45
0.64 0.49 0.37 0.32 0.31 0.35 0.42 0.51 0.53 0.49 0.42 0.25 0.17 0.13 0.12 0.12 0.08 0.06 0.04 0.02 0.01 0.01 0.01 0.02 0.05 0.07 0.09 0.12 0.17 0.22 0.26 0.24 0.33 0.34 0.32 0.47 0.49 0.40 0.33 0.38 0.48 0.54 0.49
0.68 0.65 0.57 0.51 0.49 0.50 0.45 0.54 0.67 0.70 0.58 0.39 0.27 0.21 0.16 0.11 0.07 0.05 0.02 0.01 0.00 0.00 0.00 0.01 0.02 0.04 0.06 0.07 0.12 0.19 0.22 0.24 0.31 0.28 0.27 0.34 0.41 0.38 0.35 0.30 0.32 0.33 0.32
0.59 0.60 0.61 0.64 0.67 0.73 0.74 0.69 0.87 0.93 0.79 0.53 0.37 0.31 0.24 0.17 0.19 0.16 0.05 0.03 0.01 0.00 0.00 0.01 0.02 0.02 0.02 0.04 0.10 0.18 0.15 0.23 0.32 0.26 0.21 0.24 0.30 0.28 0.27 0.23 0.18 0.17 0.16
0.51 0.52 0.52 0.55 0.62 0.72 0.79 1.10 1.29 1.08 0.92 0.63 0.60 0.43 0.39 0.38 0.39 0.26 0.14 0.11 0.06 0.04 0.02 0.02 0.02 0.02 0.01 0.00 0.04 0.09 0.10 0.19 0.28 0.20 0.14 0.21 0.23 0.21 0.17 0.13 0.11 0.10 0.09
0.44 0.44 0.43 0.41 0.42 0.50 0.69 1.01 1.27 1.34 1.26 1.12 0.85 0.60 0.57 0.39 0.24 0.16 0.11 0.13 0.11 0.07 0.04 0.03 0.02 0.01 0.01 0.01 0.02 0.04 0.09 0.14 0.25 0.23 0.13 0.18 0.21 0.20 0.15 0.10 0.07 0.07 0.06
0.45 0.45 0.42 0.41 0.38 0.39 0.46 0.62 0.80 0.91 0.94 0.92 0.72 0.56 0.60 0.50 0.35 0.27 0.21 0.19 0.13 0.08 0.05 0.04 0.02 0.01 0.01 0.01 0.03 0.06 0.08 0.12 0.26 0.29 0.21 0.19 0.22 0.23 0.19 0.12 0.07 0.06 0.07
0.52 0.58 0.55 0.46 0.43 0.42 0.45 0.51 0.57 0.71 0.77 0.76 0.74 0.66 0.62 0.58 0.50 0.41 0.30 0.23 0.17 0.14 0.10 0.07 0.04 0.02 0.01 0.03 0.05 0.08 0.09 0.15 0.24 0.24 0.25 0.29 0.33 0.36 0.33 0.26 0.17 0.11 0.09
0.53 0.60 0.65 0.57 0.52 0.48 0.45 0.48 0.51 0.61 0.68 0.70 0.67 0.64 0.68 0.70 0.63 0.53 0.43 0.36 0.29 0.26 0.27 0.18 0.07 0.04 0.02 0.02 0.03 0.05 0.07 0.12 0.18 0.19 0.20 0.29 0.40 0.37 0.41 0.42 0.34 0.22 0.17
0.53 0.56 0.59 0.60 0.60 0.58 0.57 0.56 0.55 0.61 0.70 0.69 0.65 0.60 0.59 0.63 0.66 0.65 0.58 0.48 0.42 0.42 0.39 0.31 0.18 0.10 0.06 0.04 0.02 0.02 0.03 0.06 0.06 0.07 0.06 0.09 0.21 0.35 0.43 0.45 0.39 0.32 0.26
0.46 0.47 0.52 0.54 0.59 0.65 0.67 0.69 0.71 0.71 0.77 0.73 0.70 0.63 0.59 0.60 0.64 0.73 0.68 0.59 0.51 0.53 0.52 0.46 0.32 0.19 0.10 0.06 0.04 0.02 0.03 0.03 0.03 0.04 0.03 0.03 0.07 0.15 0.30 0.32 0.31 0.33 0.29
0.41 0.41 0.44 0.48 0.51 0.62 0.70 0.73 0.81 0.84 0.85 0.82 0.80 0.70 0.68 0.73 0.77 0.87 0.90 0.83 0.75 0.68 0.60 0.47 0.39 0.28 0.15 0.10 0.07 0.05 0.03 0.03 0.04 0.04 0.03 0.03 0.02 0.05 0.11 0.11 0.12 0.13 0.17
0.32 0.34 0.38 0.43 0.45 0.53 0.68 0.80 0.95 1.06 1.03 1.04 0.98 0.85 0.87 1.00 1.12 1.23 1.18 1.18 1.14 0.93 0.77 0.63 0.52 0.42 0.27 0.19 0.14 0.10 0.06 0.05 0.05 0.05 0.04 0.04 0.03 0.02 0.02 0.03 0.07 0.06 0.06
0.22 0.25 0.31 0.34 0.42 0.50 0.58 0.72 0.94 1.21 1.31 1.39 1.34 1.16 1.11 1.22 1.44 1.62 1.55 1.54 1.46 1.25 1.12 1.05 1.09 0.96 0.66 0.35 0.30 0.23 0.13 0.07 0.07 0.07 0.06 0.06 0.05 0.05 0.03 0.01 0.03 0.05 0.04
0.15 0.17 0.22 0.30 0.39 0.48 0.57 0.74 0.90 1.05 1.05 1.21 1.35 1.31 1.22 1.21 1.35 1.48 1.69 1.71 1.57 1.51 1.56 1.53 1.67 1.65 1.16 0.66 0.59 0.60 0.41 0.27 0.13 0.09 0.07 0.06 0.06 0.07 0.05 0.04 0.03 0.03 0.03
0.10 0.12 0.15 0.22 0.32 0.45 0.61 0.84 1.05 1.24 1.32 1.37 1.29 1.36 1.36 1.28 1.31 1.39 1.54 1.67 1.63 1.63 1.65 1.70 1.92 2.16 1.81 1.25 0.90 0.93 0.75 0.64 0.44 0.17 0.09 0.10 0.09 0.07 0.08 0.08 0.07 0.07 0.06
0.08 0.08 0.12 0.20 0.35 0.56 0.77 1.03 1.28 1.49 1.51 1.40 1.45 1.47 1.34 1.26 1.22 1.27 1.40 1.53 1.62 1.60 1.66 1.68 1.70 2.04 2.18 1.82 1.47 1.09 0.81 0.68 0.63 0.48 0.25 0.16 0.17 0.13 0.11 0.11 0.09 0.09 0.10
0.14 0.16 0.23 0.43 0.68 0.93 1.14 1.40 1.69 1.69 1.57 1.48 1.47 1.44 1.38 1.37 1.34 1.33 1.45 1.50 1.50 1.53 1.60 1.83 1.96 2.13 2.19 2.05 1.87 1.65 1.40 1.08 0.69 0.66 0.63 0.41 0.28 0.21 0.17 0.14 0.13 0.13 0.12
0.44 0.58 0.79 1.05 1.24 1.33 1.45 1.60 1.72 1.70 1.71 1.65 1.46 1.37 1.35 1.37 1.42 1.48 1.54 1.51 1.46 1.47 1.55 1.72 1.91 2.06 2.25 2.29 2.05 1.78 1.64 1.43 1.20 1.01 0.77 0.66 0.55 0.38 0.32 0.29 0.23 0.20 0.21

GEFSSE_prec_meanprecacc_072.txt.gz
Total_Precipitation_Accumulation
0.03 0.06 0.14 0.16 0.16 0.17 0.16 0.15 0.15 0.16 0.16 0.14 0.12 0.12 0.12 0.11 0.16 0.21 0.21 0.15 0.11 0.11 0.11 0.19 0.24 0.18 0.20 0.26 0.30 0.34 0.40 0.42 0.33 0.26 0.26 0.27 0.25 0.26 0.34 0.42 0.48 0.52 0.36
0.01 0.04 0.13 0.18 0.18 0.17 0.16 0.14 0.15 0.16 0.13 0.12 0.11 0.11 0.10 0.12 0.17 0.18 0.14 0.10 0.07 0.07 0.10 0.19 0.26 0.22 0.23 0.30 0.41 0.49 0.54 0.47 0.38 0.28 0.32 0.35 0.31 0.31 0.36 0.39 0.53 0.53 0.34
0.01 0.02 0.08 0.16 0.18 0.16 0.15 0.13 0.20 0.20 0.13 0.12 0.14 0.12 0.09 0.09 0.09 0.10 0.10 0.07 0.05 0.05 0.07 0.16 0.24 0.24 0.25 0.35 0.46 0.49 0.51 0.49 0.40 0.33 0.58 1.00 0.71 0.43 0.39 0.46 0.48 0.36 0.32
0.02 0.02 0.06 0.16 0.22 0.21 0.18 0.19 0.32 0.29 0.20 0.15 0.14 0.13 0.08 0.07 0.11 0.17 0.17 0.07 0.05 0.05 0.06 0.13 0.21 0.21 0.25 0.35 0.40 0.38 0.39 0.39 0.42 0.52 0.95 1.24 1.05 0.63 0.60 0.60 0.51 0.39 0.34
0.04 0.08 0.21 0.30 0.27 0.25 0.26 0.34 0.47 0.40 0.33 0.23 0.14 0.10 0.08 0.07 0.10 0.16 0.12 0.07 0.04 0.05 0.07 0.13 0.19 0.19 0.21 0.25 0.29 0.30 0.36 0.49 0.61 0.71 0.96 1.02 1.00 0.75 0.69 0.64 0.58 0.44 0.40
0.09 0.14 0.25 0.36 0.32 0.31 0.37 0.46 0.48 0.48 0.51 0.34 0.18 0.11 0.12 0.11 0.11 0.14 0.13 0.07 0.05 0.05 0.06 0.09 0.14 0.19 0.20 0.23 0.24 0.30 0.42 0.60 0.69 0.78 0.91 0.91 0.85 0.66 0.61 0.60 0.59 0.55 0.50
0.16 0.19 0.24 0.40 0.40 0.41 0.47 0.53 0.48 0.51 0.54 0.39 0.19 0.17 0.17 0.11 0.10 0.13 0.15 0.07 0.04 0.03 0.03 0.06 0.10 0.14 0.18 0.22 0.23 0.29 0.39 0.42 0.52 0.68 0.90 0.93 0.67 0.48 0.51 0.56 0.57 0.57 0.56
0.37 0.31 0.31 0.42 0.44 0.46 0.54 0.62 0.54 0.52 0.52 0.38 0.25 0.22 0.17 0.14 0.13 0.14 0.11 0.07 0.03 0.03 0.02 0.04 0.09 0.13 0.15 0.18 0.23 0.30 0.34 0.32 0.39 0.44 0.50 0.73 0.68 0.52 0.44 0.52 0.58 0.53 0.50
0.79 0.66 0.50 0.43 0.41 0.45 0.55 0.66 0.68 0.64 0.58 0.42 0.33 0.24 0.21 0.19 0.15 0.12 0.08 0.06 0.05 0.04 0.03 0.03 0.06 0.08 0.10 0.13 0.18 0.25 0.30 0.28 0.39 0.39 0.34 0.51 0.55 0.46 0.39 0.43 0.52 0.59 0.55
0.88 0.84 0.73 0.65 0.62 0.62 0.57 0.69 0.84 0.87 0.78 0.60 0.47 0.39 0.31 0.23 0.16 0.13 0.07 0.05 0.05 0.04 0.04 0.04 0.03 0.04 0.07 0.08 0.14 0.21 0.26 0.28 0.36 0.32 0.30 0.38 0.49 0.45 0.41 0.34 0.35 0.37 0.37
0.74 0.76 0.78 0.81 0.84 0.89 0.89 0.86 1.05 1.09 0.98 0.74 0.58 0.53 0.48 0.34 0.31 0.27 0.13 0.11 0.08 0.06 0.05 0.05 0.04 0.03 0.03 0.05 0.12 0.21 0.18 0.27 0.38 0.31 0.27 0.30 0.37 0.36 0.34 0.28 0.21 0.21 0.20
0.60 0.62 0.63 0.68 0.76 0.87 0.94 1.26 1.46 1.24 1.10 0.82 0.78 0.64 0.61 0.60 0.59 0.40 0.25 0.24 0.18 0.13 0.10 0.09 0.09 0.06 0.03 0.01 0.05 0.10 0.13 0.22 0.32 0.24 0.20 0.26 0.32 0.30 0.23 0.18 0.14 0.13 0.12
0.48 0.47 0.47 0.46 0.48 0.57 0.77 1.11 1.39 1.49 1.44 1.33 1.07 0.82 0.79 0.62 0.46 0.36 0.27 0.26 0.25 0.20 0.17 0.16 0.14 0.09 0.06 0.04 0.04 0.06 0.10 0.15 0.28 0.27 0.17 0.23 0.29 0.29 0.22 0.15 0.10 0.10 0.08
0.47 0.47 0.44 0.44 0.41 0.43 0.51 0.68 0.88 1.02 1.10 1.11 0.93 0.80 0.85 0.71 0.55 0.49 0.41 0.36 0.30 0.24 0.21 0.19 0.16 0.11 0.07 0.04 0.05 0.07 0.09 0.12 0.27 0.34 0.26 0.21 0.28 0.30 0.26 0.17 0.11 0.09 0.10
0.52 0.59 0.56 0.47 0.44 0.43 0.47 0.54 0.62 0.77 0.85 0.87 0.89 0.83 0.83 0.79 0.73 0.63 0.50 0.43 0.35 0.31 0.28 0.24 0.17 0.13 0.09 0.06 0.06 0.09 0.10 0.15 0.25 0.28 0.30 0.31 0.35 0.41 0.39 0.31 0.21 0.13 0.12
0.53 0.60 0.65 0.57 0.52 0.48 0.46 0.49 0.53 0.64 0.72 0.76 0.74 0.73 0.82 0.87 0.82 0.74 0.64 0.57 0.47 0.43 0.46 0.38 0.26 0.19 0.14 0.08 0.05 0.07 0.08 0.12 0.18 0.19 0.23 0.32 0.41 0.40 0.45 0.46 0.39 0.26 0.20
0.53 0.56 0.59 0.60 0.60 0.59 0.57 0.56 0.55 0.63 0.73 0.74 0.71 0.66 0.67 0.73 0.76 0.74 0.70 0.64 0.59 0.59 0.59 0.53 0.38 0.26 0.17 0.10 0.05 0.04 0.05 0.07 0.06 0.07 0.08 0.12 0.23 0.37 0.46 0.49 0.43 0.36 0.30
0.46 0.47 0.52 0.54 0.59 0.65 0.67 0.69 0.71 0.71 0.77 0.74 0.73 0.67 0.62 0.66 0.71 0.81 0.77 0.69 0.66 0.69 0.69 0.66 0.50 0.36 0.22 0.14 0.10 0.07 0.06 0.06 0.05 0.05 0.05 0.05 0.10 0.18 0.33 0.35 0.34 0.36 0.33
0.41 0.41 0.44 0.48 0.51 0.62 0.70 0.73 0.81 0.84 0.85 0.82 0.81 0.71 0.69 0.75 0.80 0.93 0.98 0.94 0.88 0.83 0.76 0.67 0.60 0.50 0.35 0.26 0.20 0.14 0.09 0.07 0.08 0.07 0.05 0.04 0.03 0.08 0.15 0.13 0.13 0.15 0.20
0.32 0.34 0.38 0.43 0.45 0.53 0.68 0.80 0.95 1.06 1.03 1.04 0.98 0.86 0.88 1.02 1.14 1.26 1.23 1.25 1.24 1.05 0.94 0.83 0.73 0.63 0.47 0.37 0.31 0.22 0.14 0.11 0.10 0.11 0.08 0.06 0.04 0.03 0.04 0.05 0.09 0.07 0.07
0.22 0.25 0.31 0.34 0.42 0.50 0.58 0.72 0.94 1.21 1.31 1.40 1.35 1.17 1.12 1.24 1.48 1.66 1.59 1.59 1.54 1.35 1.25 1.26 1.34 1.20 0.87 0.54 0.46 0.35 0.22 0.13 0.11 0.12 0.10 0.08 0.06 0.07 0.06 0.03 0.06 0.07 0.05
0.15 0.17 0.22 0.30 0.39 0.48 0.57 0.75 0.91 1.05 1.05 1.22 1.36 1.33 1.23 1.22 1.37 1.51 1.73 1.76 1.63 1.58 1.66 1.65 1.84 1.87 1.39 0.90 0.79 0.78 0.56 0.38 0.19 0.12 0.12 0.10 0.08 0.10 0.07 0.04 0.04 0.04 0.04
0.10 0.12 0.15 0.22 0.32 0.45 0.61 0.85 1.06 1.25 1.33 1.38 1.30 1.37 1.37 1.28 1.31 1.39 1.55 1.69 1.66 1.67 1.71 1.78 2.03 2.33 2.01 1.46 1.13 1.16 0.92 0.77 0.55 0.24 0.13 0.13 0.12 0.11 0.11 0.10 0.08 0.08 0.07
0.08 0.09 0.12 0.20 0.35 0.56 0.77 1.03 1.29 1.49 1.53 1.42 1.45 1.48 1.35 1.26 1.22 1.28 1.41 1.54 1.63 1.62 1.70 1.75 1.80 2.17 2.36 2.03 1.67 1.29 0.97 0.81 0.78 0.59 0.32 0.21 0.21 0.16 0.15 0.13 0.10 0.10 0.10
0.14 0.16 0.23 0.43 0.68 0.93 1.14 1.40 1.70 1.70 1.58 1.49 1.48 1.45 1.39 1.37 1.35 1.33 1.46 1.51 1.51 1.55 1.63 1.88 2.06 2.26 2.35 2.24 2.07 1.85 1.59 1.24 0.82 0.78 0.76 0.51 0.35 0.25 0.19 0.17 0.15 0.14 0.14
0.44 0.58 0.79 1.05 1.24 1.33 1.45 1.60 1.73 1.70 1.72 1.66 1.47 1.38 1.36 1.39 1.43 1.49 1.55 1.52 1.47 1.49 1.57 1.75 1.96 2.15 2.36 2.44 2.24 1.98 1.83 1.63 1.34 1.13 0.89 0.79 0.67 0.46 0.37 0.33 0.26 0.23 0.24

GEFSSE_prec_meanprecacc_078.txt.gz
Total_Precipitation_Accumulation
0.09 0.09 0.15 0.17 0.18 0.19 0.19 0.19 0.19 0.19 0.20 0.17 0.16 0.15 0.14 0.13 0.17 0.21 0.21 0.15 0.11 0.11 0.11 0.19 0.24 0.19 0.20 0.26 0.30 0.34 0.40 0.42 0.33 0.26 0.26 0.28 0.25 0.27 0.36 0.45 0.57 0.60 0.39
0.07 0.07 0.16 0.20 0.20 0.21 0.20 0.18 0.19 0.19 0.15 0.15 0.15 0.14 0.12 0.14 0.19 0.19 0.15 0.10 0.08 0.08 0.11 0.19 0.26 0.23 0.23 0.31 0.41 0.49 0.54 0.48 0.39 0.29 0.34 0.39 0.32 0.32 0.37 0.43 0.64 0.62 0.35
0.03 0.06 0.11 0.20 0.22 0.21 0.20 0.18 0.23 0.23 0.15 0.15 0.17 0.15 0.12 0.11 0.11 0.11 0.11 0.08 0.06 0.06 0.08 0.17 0.24 0.24 0.26 0.36 0.47 0.50 0.51 0.49 0.40 0.34 0.64 1.16 0.80 0.45 0.41 0.49 0.53 0.39 0.33
0.04 0.06 0.13 0.24 0.29 0.28 0.24 0.24 0.37 0.34 0.25 0.21 0.20 0.18 0.12 0.10 0.13 0.19 0.18 0.08 0.05 0.06 0.07 0.14 0.22 0.22 0.26 0.36 0.40 0.39 0.40 0.40 0.42 0.54 1.05 1.41 1.21 0.67 0.62 0.62 0.53 0.41 0.35
0.07 0.13 0.30 0.38 0.34 0.32 0.33 0.41 0.54 0.48 0.41 0.32 0.22 0.17 0.16 0.14 0.14 0.20 0.15 0.09 0.05 0.06 0.08 0.14 0.20 0.20 0.21 0.25 0.29 0.30 0.37 0.51 0.63 0.74 1.05 1.17 1.18 0.82 0.71 0.66 0.59 0.46 0.42
0.16 0.21 0.33 0.42 0.38 0.37 0.44 0.54 0.57 0.58 0.61 0.44 0.27 0.21 0.21 0.19 0.18 0.19 0.17 0.11 0.07 0.07 0.08 0.11 0.15 0.20 0.21 0.23 0.25 0.30 0.44 0.62 0.74 0.86 1.02 1.05 1.01 0.73 0.64 0.62 0.61 0.57 0.52
0.23 0.25 0.31 0.44 0.45 0.47 0.55 0.61 0.58 0.62 0.66 0.51 0.30 0.28 0.27 0.19 0.18 0.19 0.20 0.12 0.08 0.06 0.06 0.10 0.13 0.16 0.19 0.23 0.24 0.30 0.40 0.45 0.59 0.78 1.01 1.09 0.81 0.53 0.53 0.57 0.60 0.62 0.60
0.41 0.35 0.36 0.45 0.48 0.51 0.58 0.67 0.60 0.61 0.62 0.49 0.38 0.34 0.28 0.24 0.22 0.23 0.18 0.12 0.08 0.06 0.06 0.08 0.11 0.14 0.16 0.19 0.24 0.31 0.36 0.34 0.45 0.53 0.60 0.89 0.78 0.55 0.46 0.54 0.61 0.58 0.55
0.81 0.70 0.53 0.45 0.45 0.51 0.61 0.71 0.73 0.69 0.65 0.51 0.45 0.38 0.34 0.32 0.26 0.20 0.16 0.13 0.10 0.09 0.08 0.08 0.09 0.10 0.11 0.14 0.18 0.25 0.31 0.29 0.44 0.48 0.45 0.70 0.63 0.49 0.41 0.44 0.54 0.62 0.58
0.91 0.87 0.76 0.67 0.64 0.64 0.61 0.74 0.90 0.94 0.86 0.69 0.57 0.51 0.47 0.37 0.29 0.24 0.15 0.13 0.11 0.10 0.10 0.09 0.08 0.07 0.08 0.10 0.14 0.22 0.27 0.29 0.39 0.37 0.41 0.50 0.54 0.48 0.42 0.35 0.36 0.39 0.39
0.76 0.77 0.79 0.83 0.86 0.92 0.92 0.90 1.10 1.16 1.05 0.82 0.68 0.67 0.65 0.50 0.50 0.46 0.29 0.29 0.21 0.17 0.15 0.13 0.10 0.07 0.06 0.06 0.13 0.22 0.19 0.28 0.42 0.37 0.37 0.35 0.40 0.38 0.36 0.30 0.23 0.22 0.22
0.62 0.63 0.64 0.69 0.77 0.89 0.97 1.30 1.50 1.30 1.18 0.90 0.87 0.74 0.76 0.80 0.82 0.59 0.46 0.48 0.41 0.32 0.24 0.19 0.17 0.11 0.06 0.03 0.09 0.13 0.14 0.23 0.34 0.27 0.26 0.28 0.34 0.32 0.26 0.21 0.16 0.15 0.14
0.49 0.48 0.48 0.47 0.49 0.58 0.78 1.12 1.40 1.52 1.48 1.39 1.15 0.90 0.90 0.77 0.65 0.55 0.47 0.50 0.49 0.43 0.36 0.36 0.27 0.16 0.11 0.09 0.11 0.11 0.11 0.16 0.30 0.30 0.24 0.25 0.31 0.32 0.26 0.19 0.13 0.12 0.10
0.47 0.48 0.45 0.44 0.41 0.43 0.52 0.69 0.89 1.03 1.11 1.13 0.98 0.87 0.94 0.81 0.69 0.67 0.62 0.60 0.57 0.53 0.51 0.50 0.41 0.28 0.18 0.11 0.11 0.11 0.12 0.15 0.28 0.38 0.33 0.24 0.29 0.31 0.29 0.21 0.15 0.13 0.13
0.52 0.59 0.56 0.47 0.44 0.43 0.47 0.54 0.62 0.77 0.86 0.88 0.91 0.86 0.88 0.87 0.83 0.77 0.67 0.65 0.58 0.58 0.57 0.56 0.46 0.36 0.28 0.19 0.16 0.18 0.17 0.20 0.27 0.31 0.34 0.33 0.37 0.42 0.41 0.36 0.26 0.17 0.15
0.53 0.60 0.65 0.57 0.52 0.48 0.46 0.49 0.54 0.64 0.72 0.76 0.75 0.74 0.84 0.91 0.89 0.84 0.77 0.77 0.72 0.69 0.73 0.65 0.51 0.47 0.36 0.24 0.16 0.14 0.14 0.17 0.22 0.22 0.29 0.37 0.43 0.41 0.47 0.51 0.45 0.29 0.23
0.53 0.56 0.59 0.60 0.60 0.59 0.57 0.56 0.56 0.63 0.73 0.74 0.72 0.67 0.68 0.76 0.81 0.83 0.81 0.78 0.81 0.87 0.87 0.81 0.63 0.53 0.39 0.27 0.19 0.13 0.09 0.10 0.08 0.09 0.11 0.14 0.25 0.38 0.46 0.51 0.49 0.40 0.33
0.46 0.47 0.52 0.54 0.59 0.65 0.68 0.69 0.71 0.71 0.78 0.75 0.74 0.67 0.63 0.67 0.74 0.86 0.86 0.81 0.81 0.90 0.94 0.94 0.79 0.66 0.48 0.37 0.31 0.20 0.15 0.12 0.07 0.06 0.08 0.07 0.14 0.21 0.34 0.36 0.37 0.40 0.38
0.41 0.41 0.44 0.48 0.51 0.62 0.70 0.73 0.82 0.84 0.85 0.83 0.82 0.73 0.70 0.76 0.81 0.96 1.04 1.03 1.02 0.99 0.93 0.88 0.86 0.75 0.59 0.48 0.42 0.35 0.23 0.16 0.14 0.10 0.09 0.08 0.07 0.12 0.19 0.14 0.15 0.17 0.23
0.32 0.34 0.38 0.43 0.45 0.53 0.68 0.80 0.96 1.07 1.04 1.06 1.00 0.88 0.90 1.03 1.16 1.27 1.25 1.31 1.35 1.19 1.09 0.99 0.95 0.86 0.70 0.60 0.52 0.40 0.28 0.21 0.19 0.17 0.14 0.11 0.08 0.09 0.11 0.09 0.11 0.08 0.08
0.22 0.25 0.31 0.34 0.42 0.50 0.58 0.73 0.95 1.22 1.33 1.42 1.37 1.20 1.14 1.26 1.49 1.68 1.61 1.62 1.61 1.44 1.36 1.41 1.54 1.42 1.09 0.79 0.69 0.54 0.36 0.23 0.22 0.20 0.16 0.15 0.15 0.16 0.14 0.10 0.10 0.11 0.06
0.15 0.17 0.22 0.30 0.39 0.48 0.57 0.75 0.91 1.06 1.07 1.23 1.39 1.36 1.27 1.25 1.39 1.52 1.75 1.78 1.68 1.66 1.75 1.78 2.02 2.07 1.58 1.12 1.01 1.01 0.76 0.54 0.31 0.20 0.17 0.16 0.15 0.21 0.16 0.11 0.08 0.08 0.06
0.10 0.12 0.15 0.22 0.32 0.45 0.61 0.85 1.07 1.26 1.34 1.40 1.32 1.41 1.41 1.33 1.35 1.43 1.58 1.72 1.70 1.73 1.77 1.87 2.16 2.50 2.20 1.66 1.34 1.38 1.10 0.92 0.71 0.33 0.20 0.18 0.16 0.19 0.21 0.18 0.14 0.12 0.10
0.08 0.09 0.12 0.20 0.35 0.56 0.78 1.04 1.30 1.50 1.53 1.43 1.47 1.50 1.37 1.29 1.25 1.31 1.44 1.57 1.66 1.66 1.75 1.81 1.89 2.30 2.54 2.22 1.87 1.47 1.13 0.99 0.98 0.75 0.43 0.29 0.27 0.22 0.22 0.22 0.18 0.17 0.15
0.14 0.16 0.23 0.43 0.68 0.93 1.14 1.41 1.70 1.70 1.59 1.50 1.49 1.46 1.40 1.39 1.37 1.36 1.49 1.54 1.54 1.59 1.67 1.93 2.14 2.37 2.49 2.40 2.24 2.01 1.75 1.42 0.99 0.97 0.93 0.66 0.49 0.36 0.27 0.25 0.24 0.21 0.21
0.44 0.58 0.79 1.05 1.24 1.33 1.46 1.61 1.73 1.71 1.72 1.66 1.48 1.38 1.37 1.41 1.47 1.52 1.57 1.55 1.50 1.53 1.61 1.79 2.02 2.23 2.47 2.59 2.43 2.17 2.00 1.78 1.47 1.28 1.06 0.97 0.85 0.62 0.52 0.44 0.36 0.32 0.31

GEFSSE_prec_meanprecacc_084.txt.gz
Total_Precipitation_Accumulation
0.26 0.18 0.24 0.25 0.23 0.22 0.22 0.22 0.22 0.22 0.22 0.19 0.17 0.15 0.14 0.13 0.17 0.22 0.22 0.15 0.11 0.11 0.12 0.19 0.24 0.19 0.21 0.27 0.30 0.35 0.41 0.43 0.35 0.28 0.28 0.29 0.27 0.28 0.38 0.49 0.61 0.64 0.45
0.22 0.18 0.27 0.29 0.27 0.25 0.23 0.21 0.22 0.21 0.17 0.16 0.16 0.15 0.13 0.15 0.19 0.20 0.15 0.10 0.08 0.08 0.11 0.19 0.26 0.23 0.23 0.31 0.41 0.49 0.54 0.49 0.40 0.30 0.37 0.42 0.35 0.35 0.40 0.47 0.69 0.65 0.40
0.18 0.16 0.22 0.29 0.29 0.26 0.23 0.20 0.25 0.23 0.16 0.16 0.18 0.16 0.12 0.12 0.12 0.12 0.11 0.08 0.06 0.06 0.09 0.17 0.25 0.24 0.26 0.36 0.47 0.50 0.52 0.51 0.42 0.37 0.67 1.19 0.82 0.47 0.44 0.52 0.57 0.42 0.36
0.16 0.16 0.22 0.31 0.33 0.31 0.26 0.27 0.39 0.35 0.25 0.21 0.21 0.19 0.14 0.11 0.14 0.20 0.19 0.08 0.06 0.06 0.07 0.15 0.23 0.22 0.26 0.36 0.41 0.39 0.41 0.42 0.45 0.58 1.07 1.45 1.24 0.70 0.64 0.64 0.56 0.42 0.36
0.17 0.19 0.38 0.46 0.37 0.34 0.35 0.42 0.55 0.49 0.42 0.32 0.23 0.19 0.17 0.16 0.16 0.22 0.16 0.09 0.05 0.06 0.08 0.14 0.21 0.20 0.21 0.25 0.29 0.30 0.39 0.54 0.68 0.78 1.07 1.19 1.20 0.87 0.74 0.68 0.62 0.47 0.43
0.26 0.28 0.39 0.48 0.43 0.42 0.47 0.56 0.58 0.59 0.62 0.44 0.28 0.22 0.23 0.22 0.21 0.22 0.19 0.11 0.08 0.08 0.09 0.12 0.16 0.21 0.22 0.24 0.25 0.31 0.45 0.65 0.79 0.89 1.06 1.08 1.03 0.77 0.67 0.65 0.63 0.59 0.54
0.28 0.30 0.35 0.48 0.49 0.52 0.59 0.64 0.60 0.64 0.68 0.53 0.32 0.29 0.29 0.22 0.22 0.23 0.23 0.13 0.09 0.07 0.08 0.12 0.14 0.18 0.21 0.24 0.25 0.30 0.42 0.48 0.62 0.82 1.06 1.13 0.85 0.61 0.60 0.61 0.62 0.63 0.63
0.43 0.39 0.40 0.50 0.53 0.56 0.62 0.70 0.63 0.64 0.65 0.53 0.42 0.38 0.33 0.29 0.28 0.28 0.22 0.16 0.10 0.08 0.08 0.09 0.13 0.15 0.18 0.21 0.25 0.32 0.38 0.37 0.46 0.58 0.67 0.94 0.89 0.68 0.54 0.57 0.63 0.60 0.58
0.84 0.72 0.55 0.47 0.48 0.55 0.64 0.74 0.77 0.75 0.71 0.58 0.51 0.44 0.41 0.39 0.34 0.29 0.24 0.20 0.16 0.13 0.11 0.10 0.11 0.11 0.13 0.15 0.19 0.27 0.34 0.33 0.46 0.52 0.52 0.77 0.80 0.66 0.49 0.48 0.56 0.64 0.61
0.92 0.88 0.76 0.68 0.65 0.65 0.62 0.77 0.94 0.99 0.94 0.77 0.65 0.59 0.56 0.47 0.39 0.35 0.25 0.22 0.19 0.17 0.16 0.14 0.11 0.10 0.10 0.11 0.15 0.23 0.30 0.32 0.41 0.42 0.47 0.58 0.70 0.63 0.52 0.39 0.38 0.41 0.41
0.76 0.78 0.80 0.83 0.87 0.92 0.92 0.91 1.12 1.19 1.10 0.88 0.76 0.75 0.73 0.56 0.56 0.53 0.38 0.40 0.31 0.27 0.25 0.21 0.15 0.12 0.09 0.07 0.14 0.23 0.21 0.29 0.45 0.40 0.42 0.44 0.56 0.54 0.47 0.35 0.26 0.25 0.24
0.63 0.64 0.65 0.69 0.77 0.89 0.97 1.30 1.50 1.30 1.18 0.91 0.89 0.78 0.82 0.86 0.88 0.65 0.55 0.61 0.55 0.48 0.37 0.30 0.25 0.17 0.09 0.04 0.10 0.16 0.15 0.25 0.36 0.30 0.30 0.38 0.48 0.46 0.36 0.27 0.20 0.18 0.17
0.49 0.48 0.48 0.47 0.49 0.58 0.78 1.12 1.41 1.52 1.48 1.39 1.15 0.92 0.93 0.80 0.68 0.59 0.54 0.60 0.60 0.58 0.49 0.45 0.35 0.23 0.16 0.12 0.13 0.13 0.15 0.19 0.33 0.35 0.33 0.37 0.43 0.43 0.35 0.25 0.17 0.15 0.13
0.47 0.48 0.45 0.44 0.41 0.43 0.52 0.69 0.89 1.03 1.12 1.13 0.98 0.87 0.94 0.83 0.72 0.72 0.69 0.66 0.63 0.62 0.63 0.60 0.49 0.36 0.26 0.18 0.17 0.19 0.20 0.21 0.35 0.47 0.46 0.36 0.40 0.42 0.38 0.28 0.19 0.16 0.16
0.52 0.59 0.56 0.47 0.44 0.43 0.47 0.54 0.62 0.77 0.86 0.88 0.91 0.86 0.89 0.88 0.84 0.81 0.72 0.70 0.63 0.65 0.67 0.65 0.54 0.44 0.39 0.31 0.28 0.32 0.34 0.35 0.40 0.42 0.45 0.43 0.45 0.51 0.50 0.43 0.31 0.20 0.18
0.53 0.60 0.65 0.57 0.52 0.48 0.46 0.49 0.54 0.64 0.72 0.76 0.75 0.75 0.85 0.92 0.90 0.86 0.80 0.81 0.77 0.75 0.82 0.74 0.59 0.54 0.47 0.37 0.28 0.28 0.31 0.34 0.39 0.37 0.40 0.47 0.50 0.47 0.54 0.58 0.49 0.32 0.25
0.53 0.56 0.59 0.60 0.60 0.59 0.57 0.56 0.56 0.63 0.73 0.74 0.72 0.67 0.68 0.77 0.82 0.84 0.83 0.82 0.85 0.92 0.94 0.90 0.70 0.61 0.49 0.38 0.32 0.26 0.24 0.24 0.25 0.28 0.24 0.24 0.31 0.43 0.52 0.59 0.55 0.43 0.35
0.46 0.47 0.52 0.54 0.59 0.65 0.68 0.69 0.71 0.71 0.78 0.75 0.74 0.68 0.63 0.67 0.75 0.87 0.87 0.83 0.85 0.95 1.01 1.01 0.87 0.74 0.58 0.47 0.44 0.36 0.29 0.27 0.24 0.24 0.23 0.19 0.23 0.26 0.39 0.42 0.42 0.43 0.41
0.41 0.41 0.44 0.48 0.51 0.62 0.70 0.73 0.82 0.84 0.85 0.83 0.82 0.73 0.71 0.76 0.82 0.96 1.05 1.05 1.06 1.03 0.99 0.94 0.94 0.84 0.69 0.60 0.55 0.49 0.42 0.33 0.32 0.27 0.26 0.23 0.18 0.18 0.23 0.17 0.19 0.20 0.27
0.32 0.34 0.38 0.43 0.45 0.53 0.68 0.80 0.96 1.07 1.04 1.06 1.00 0.88 0.90 1.04 1.16 1.28 1.27 1.32 1.38 1.22 1.13 1.04 1.02 0.95 0.80 0.73 0.67 0.53 0.45 0.40 0.37 0.34 0.31 0.28 0.24 0.21 0.21 0.14 0.14 0.10 0.10
0.22 0.25 0.31 0.34 0.42 0.50 0.58 0.73 0.95 1.22 1.33 1.42 1.38 1.20 1.15 1.27 1.50 1.68 1.62 1.63 1.62 1.46 1.39 1.46 1.60 1.51 1.20 0.92 0.85 0.68 0.49 0.38 0.39 0.36 0.33 0.31 0.30 0.31 0.30 0.23 0.15 0.13 0.07
0.15 0.17 0.22 0.30 0.39 0.48 0.57 0.75 0.91 1.06 1.07 1.24 1.40 1.37 1.28 1.27 1.41 1.53 1.76 1.80 1.70 1.67 1.77 1.81 2.07 2.14 1.69 1.26 1.16 1.16 0.88 0.66 0.44 0.33 0.33 0.30 0.30 0.39 0.35 0.24 0.18 0.13 0.09
0.10 0.12 0.15 0.22 0.32 0.45 0.61 0.85 1.07 1.26 1.34 1.40 1.33 1.42 1.42 1.34 1.36 1.43 1.58 1.72 1.71 1.74 1.79 1.89 2.19 2.56 2.28 1.78 1.48 1.54 1.21 1.00 0.82 0.44 0.30 0.30 0.31 0.39 0.43 0.36 0.28 0.23 0.16
0.08 0.09 0.12 0.20 0.35 0.56 0.78 1.04 1.30 1.50 1.53 1.43 1.47 1.50 1.38 1.30 1.25 1.32 1.45 1.57 1.67 1.67 1.76 1.82 1.92 2.34 2.59 2.28 1.98 1.59 1.23 1.07 1.06 0.82 0.50 0.39 0.41 0.40 0.43 0.43 0.39 0.35 0.29
0.14 0.16 0.23 0.43 0.68 0.93 1.14 1.41 1.70 1.70 1.59 1.50 1.50 1.46 1.40 1.40 1.37 1.37 1.49 1.55 1.54 1.59 1.68 1.94 2.15 2.40 2.53 2.44 2.31 2.10 1.85 1.52 1.08 1.03 0.97 0.72 0.60 0.51 0.47 0.48 0.46 0.42 0.38
0.44 0.58 0.79 1.05 1.24 1.33 1.46 1.61 1.73 1.71 1.72 1.66 1.48 1.38 1.37 1.41 1.47 1.52 1.57 1.55 1.51 1.53 1.61 1.80 2.03 2.24 2.50 2.62 2.48 2.24 2.08 1.87 1.56 1.35 1.10 1.01 0.93 0.73 0.69 0.66 0.57 0.52 0.51